GFSSE_sfc_thetae_000.txt.gz
Theta_e
343 345 346 344 346 348 349 350 351 351 353 350 350 353 353 352 351 350 350 349 349 349 351 351 349 347 346 346 348 348 349 349 349 349 346 345 344 344 344 344 344 341 347
345 345 344 344 344 347 348 349 351 352 352 346 352 349 348 348 348 350 349 350 351 349 349 350 349 349 347 348 350 350 349 347 346 347 346 346 343 342 343 342 342 341 345
343 343 343 344 343 344 346 348 350 349 350 350 350 349 349 349 347 345 347 348 349 348 348 348 349 349 348 349 348 347 346 345 345 346 346 341 340 341 341 341 341 344 342
342 343 342 343 344 344 346 346 347 347 347 347 348 349 346 345 338 331 344 345 347 348 348 348 348 347 345 347 347 347 345 344 344 343 340 337 336 343 342 341 342 341 341
343 343 343 343 343 345 345 346 346 347 346 346 345 346 345 348 343 338 345 346 348 348 347 346 345 346 345 344 345 345 344 344 343 341 336 336 336 342 343 343 342 343 343
343 343 342 341 343 344 344 344 346 345 345 345 346 344 345 344 344 346 344 345 344 344 344 343 342 343 342 341 342 343 343 342 340 338 335 337 338 344 344 344 344 342 341
341 342 345 341 343 342 340 340 343 344 343 343 342 344 344 344 344 344 344 342 345 343 343 342 344 341 339 340 340 340 341 340 339 334 335 336 338 343 343 342 343 341 341
341 342 344 341 340 341 340 340 340 341 341 341 341 342 343 343 342 341 343 343 344 345 344 342 341 339 338 338 338 337 337 337 336 334 334 335 341 343 342 342 341 340 340
337 338 341 342 341 338 337 336 337 338 339 340 340 341 341 341 341 341 341 341 342 342 341 340 339 338 336 335 335 335 334 335 337 334 333 333 340 340 342 341 341 339 339
334 335 338 341 341 341 341 331 332 333 335 336 339 337 336 337 338 338 336 338 340 340 340 339 337 336 335 334 332 331 332 333 337 334 334 333 338 339 341 341 340 339 337
327 328 335 338 339 338 336 331 335 335 334 334 335 333 334 339 336 336 327 328 333 335 336 337 336 334 333 331 329 328 328 333 334 334 334 333 332 335 339 340 339 338 335
318 320 325 332 334 336 331 334 341 340 339 338 338 337 338 336 333 329 325 326 324 324 323 333 333 331 330 333 330 322 326 325 327 328 330 332 332 334 337 338 338 337 334
316 318 319 323 328 333 334 338 337 334 335 334 334 334 334 328 326 332 325 323 322 321 323 321 331 332 332 332 330 328 321 319 324 325 324 330 331 334 336 338 337 335 333
315 314 314 320 325 328 329 330 329 328 327 327 330 333 334 331 332 327 326 324 320 322 321 322 325 325 329 332 329 324 326 322 323 322 320 325 327 330 335 336 336 334 333
311 312 311 315 319 322 324 323 323 322 321 321 322 327 328 329 329 329 323 324 322 324 323 322 324 326 326 327 327 326 326 324 322 321 320 320 325 327 331 335 336 336 333
309 309 309 311 316 317 320 319 318 317 315 316 317 321 325 326 328 329 323 322 325 326 327 325 325 325 326 326 327 329 328 328 325 324 325 321 319 322 325 331 334 335 334
307 308 308 309 312 313 315 314 312 311 311 312 315 320 321 322 324 323 321 319 319 323 324 326 325 326 328 327 326 326 326 327 327 324 325 322 318 318 320 326 331 333 335
306 306 307 305 309 310 311 311 310 310 311 312 315 316 316 316 317 317 317 317 318 318 317 315 314 316 320 321 322 323 323 325 326 327 325 322 319 317 316 320 325 330 332
306 305 306 307 307 308 309 309 311 311 310 310 312 312 312 311 312 311 312 313 313 311 312 311 311 315 314 314 316 323 322 320 326 324 323 319 318 317 316 316 320 323 328
307 305 306 306 307 307 307 308 308 309 310 310 309 309 309 310 309 309 309 310 309 307 305 306 306 307 309 312 309 314 322 326 326 324 324 321 320 319 317 318 319 323 324
306 305 305 305 306 306 305 305 306 306 307 309 309 308 308 309 308 309 308 307 308 306 306 305 304 304 304 307 305 309 314 321 323 321 322 325 322 317 317 317 318 320 325
306 306 305 305 306 306 306 306 307 306 306 308 308 308 308 308 308 307 306 305 306 305 305 305 305 302 302 304 301 300 305 314 319 319 321 322 323 321 316 315 318 319 321
306 307 306 305 305 306 306 305 305 305 305 304 305 306 307 308 308 309 307 307 306 306 304 305 304 303 300 301 302 301 296 300 303 313 319 319 320 319 319 316 316 318 319
307 308 306 306 305 305 306 304 304 302 301 303 304 305 306 307 308 308 308 308 308 307 305 304 303 304 302 300 301 301 304 300 295 296 306 309 317 317 320 319 316 317 319
307 308 307 305 305 304 305 305 304 303 303 304 304 304 305 306 306 306 307 307 308 307 306 306 305 304 303 301 300 300 300 299 299 298 294 300 307 310 314 319 318 314 318
307 307 307 305 304 304 304 304 304 303 303 301 302 301 301 302 302 303 303 304 304 304 304 304 305 304 304 302 301 300 298 296 296 296 297 298 297 301 305 311 314 312 313

GFSSE_sfc_thetae_003.txt.gz
Theta_e
344 346 345 344 346 348 349 351 352 352 351 352 351 350 350 350 351 349 348 349 350 349 347 348 348 347 345 345 346 346 348 349 349 349 346 345 344 344 345 345 347 342 350
345 345 344 343 344 347 349 349 350 353 350 351 351 350 349 349 347 347 347 346 346 346 347 346 347 347 346 348 348 347 346 347 348 348 347 345 343 343 343 344 344 343 348
343 343 342 342 341 344 347 348 349 350 351 350 349 351 349 346 339 343 342 341 342 345 345 348 348 347 346 347 347 347 346 347 346 347 346 340 340 343 341 341 341 346 347
342 342 342 341 342 342 344 345 347 348 348 349 349 348 349 343 338 335 335 334 341 343 344 345 345 346 347 346 346 346 345 345 345 345 340 337 340 343 341 340 341 343 344
341 341 342 343 343 342 342 343 345 346 346 346 348 348 346 345 336 334 334 337 340 344 346 346 344 346 345 343 343 345 345 344 343 341 337 336 334 342 343 340 341 343 342
342 343 341 343 342 341 338 340 343 343 343 344 346 347 346 345 338 335 334 340 343 344 344 345 344 343 341 341 342 341 343 343 341 339 334 336 335 344 344 343 344 343 343
342 343 343 342 342 341 339 338 340 343 342 342 343 344 344 343 343 342 341 341 343 339 339 340 341 339 338 340 340 340 340 341 340 336 333 334 335 344 343 343 344 342 342
340 342 343 340 340 339 339 339 338 339 340 341 341 341 342 342 341 340 341 342 341 340 340 342 340 338 337 336 337 338 337 338 338 334 332 333 341 344 343 342 342 341 341
337 339 342 343 340 338 335 334 334 336 336 338 340 340 340 340 340 338 333 334 335 337 336 337 338 337 334 335 335 336 335 336 336 335 331 332 341 343 342 341 342 341 340
339 338 339 341 340 341 341 332 333 334 334 336 337 336 335 338 337 330 330 329 328 329 327 331 334 334 334 334 333 332 332 334 335 333 333 334 340 339 340 340 341 341 340
332 334 339 340 340 338 335 331 334 336 334 335 334 332 332 338 336 335 328 327 327 326 325 325 321 329 332 332 331 331 330 331 332 334 333 334 336 335 336 339 339 339 339
323 324 329 335 338 337 333 333 339 338 337 337 337 337 337 337 336 334 331 327 327 326 324 322 320 320 328 332 331 327 325 327 330 331 331 334 334 333 334 338 338 338 337
321 323 324 330 335 337 335 336 336 336 336 335 336 335 334 332 333 332 333 333 331 324 327 321 319 319 318 320 324 329 327 327 327 329 329 331 334 334 334 335 338 336 336
319 320 320 326 332 332 333 333 333 331 331 330 332 333 332 330 331 332 329 329 329 329 325 322 320 320 319 320 320 324 326 328 329 330 330 324 331 331 332 334 336 337 336
316 319 318 322 327 330 329 327 326 324 323 323 324 326 327 326 328 329 326 326 325 326 325 325 322 320 323 324 324 323 325 327 328 327 325 322 324 326 327 330 335 335 335
314 316 316 320 322 324 324 323 321 320 318 318 320 322 325 325 327 326 326 324 322 325 327 327 326 325 325 325 323 325 327 327 328 328 326 325 321 322 324 324 330 334 335
314 315 315 316 319 319 319 317 315 314 315 316 318 321 320 320 320 319 318 318 318 321 322 320 317 322 325 326 326 326 326 327 329 328 327 326 325 319 321 324 324 331 334
313 312 313 309 314 315 315 314 313 313 314 315 317 317 317 316 316 317 316 315 315 315 315 315 315 316 318 321 319 322 325 325 325 326 327 325 326 326 320 321 323 324 330
313 312 311 311 311 312 313 312 314 314 312 313 314 313 314 312 312 312 312 312 311 310 309 307 307 310 309 313 314 314 317 324 325 324 324 326 327 326 325 320 320 321 324
313 311 311 311 311 311 310 311 311 311 312 312 312 311 312 310 310 310 310 311 310 308 307 307 306 306 305 306 306 306 312 321 324 325 325 326 326 325 323 324 321 317 319
312 310 309 309 310 309 308 307 308 308 309 310 310 310 310 309 309 310 308 308 309 307 307 308 307 306 304 305 303 305 306 311 317 325 327 324 325 324 324 324 324 322 318
311 310 309 309 309 309 308 309 309 309 308 309 310 310 310 310 310 309 308 307 307 306 308 307 306 304 304 306 301 300 299 303 309 313 319 323 326 326 323 323 323 322 319
312 311 310 309 309 309 309 308 307 308 307 306 307 308 310 310 310 310 309 308 308 307 305 307 306 304 301 305 307 301 295 295 302 304 311 313 319 323 323 321 321 321 320
312 313 312 311 310 309 309 307 308 304 303 305 307 307 307 309 309 309 309 308 307 307 306 307 305 307 306 301 304 303 306 302 295 295 302 304 312 312 314 319 319 320 320
313 313 313 311 310 309 309 309 307 306 306 305 306 306 307 307 308 307 307 307 306 306 307 308 308 308 306 305 303 302 304 303 303 299 295 298 303 310 313 311 312 320 320
312 313 313 311 310 309 308 307 307 306 306 304 305 304 305 305 305 305 303 304 304 304 303 305 307 306 305 305 305 304 302 300 298 299 298 299 298 303 306 308 309 314 318

GFSSE_sfc_thetae_006.txt.gz
Theta_e
340 340 345 345 348 350 350 351 353 352 353 352 351 351 352 351 350 350 348 348 348 347 346 347 350 347 344 344 345 349 349 349 348 348 348 346 345 345 344 347 347 344 349
341 339 343 344 345 348 350 351 352 353 353 353 352 351 349 349 349 349 347 346 344 343 339 345 347 347 348 348 348 347 347 347 347 347 347 347 345 343 343 345 344 343 349
341 340 334 343 342 344 347 349 350 351 350 351 351 350 349 344 345 345 343 340 341 334 333 340 345 346 347 347 347 346 346 346 346 346 346 340 339 344 342 343 343 347 347
341 338 337 343 343 341 343 344 348 349 349 349 349 348 346 343 341 342 337 335 336 339 337 340 342 343 345 343 344 345 345 345 344 344 340 338 340 344 341 340 341 345 346
341 340 339 342 342 342 342 344 345 346 346 347 347 347 346 344 340 340 340 337 339 343 345 341 337 342 342 341 341 343 343 343 343 342 336 333 336 342 342 340 341 342 342
341 341 340 342 342 341 340 342 344 344 344 345 346 347 348 340 338 335 334 335 341 340 338 334 333 339 340 339 340 341 341 341 340 336 335 335 332 345 343 343 342 340 341
340 342 340 341 342 342 341 342 342 343 343 343 344 345 344 344 343 341 341 342 342 337 330 331 330 335 336 339 338 340 340 340 339 335 335 330 336 346 343 343 343 343 342
339 342 341 341 341 341 340 339 339 340 341 342 342 342 343 342 342 340 340 341 340 338 336 334 336 338 337 338 338 338 337 337 336 333 332 329 341 346 344 343 344 342 341
336 338 340 341 340 338 336 336 336 337 338 339 340 339 340 340 337 336 336 335 333 333 335 337 337 337 337 337 336 336 334 335 331 332 332 331 343 345 344 342 342 342 341
337 336 338 340 341 337 332 333 333 336 337 337 338 338 339 337 334 332 332 332 331 332 328 327 326 331 335 335 334 333 333 333 330 330 329 335 341 343 342 342 342 341 340
330 333 338 337 340 339 337 333 334 336 336 335 335 335 333 337 334 331 329 330 328 327 327 325 323 324 326 330 333 333 331 328 327 328 328 334 340 339 340 342 340 341 340
324 324 328 333 336 337 334 332 339 337 336 336 336 334 334 334 331 330 329 328 327 325 324 323 321 320 321 320 323 329 325 323 322 327 330 333 337 336 336 340 341 340 340
321 323 324 331 335 337 336 336 335 334 334 334 334 333 331 329 329 329 329 328 327 323 322 321 320 318 317 319 319 321 324 324 324 321 325 332 335 335 336 337 340 340 339
320 320 323 330 332 333 332 330 331 329 330 328 329 330 329 327 326 325 325 323 323 324 322 321 318 317 316 319 319 318 320 324 325 325 326 327 330 335 335 336 337 339 338
319 320 320 325 328 330 328 328 326 324 323 322 323 323 326 324 324 323 322 321 321 321 320 320 319 318 317 319 320 320 319 320 323 325 325 326 324 326 331 334 336 337 338
316 318 320 321 325 325 326 325 323 321 319 319 319 321 323 323 322 322 320 319 318 319 319 321 320 321 321 321 321 322 322 320 322 324 325 325 322 323 325 328 332 336 337
316 317 317 319 322 322 322 320 319 316 316 316 318 318 318 320 316 315 314 314 314 315 315 315 315 315 317 321 321 322 323 323 323 324 325 325 324 322 322 323 327 329 334
317 314 316 313 316 317 317 315 314 314 315 315 317 317 315 315 315 313 312 311 310 311 310 307 307 308 311 313 316 316 316 319 322 323 323 325 324 324 322 322 323 325 327
315 314 313 313 312 314 314 313 313 314 312 314 315 314 313 312 312 309 310 310 309 307 306 304 303 303 302 303 304 308 307 310 314 320 322 322 323 323 323 322 321 321 323
316 314 313 312 312 313 312 312 312 312 312 311 312 311 311 310 309 308 308 308 307 306 305 304 303 303 303 302 302 301 302 304 311 317 320 323 323 323 323 321 321 317 319
314 312 311 310 311 310 309 308 307 307 309 310 310 311 310 309 309 308 307 306 307 305 304 304 303 302 301 303 300 299 299 301 302 305 314 320 322 322 322 322 321 321 316
312 312 311 310 310 309 308 308 308 309 308 308 309 309 309 310 309 308 307 305 305 304 304 304 303 300 301 301 299 297 294 296 301 301 303 311 314 318 320 322 321 321 321
312 312 312 310 310 310 309 308 308 308 306 305 306 306 308 309 310 309 308 306 305 305 303 303 302 301 298 300 300 297 293 291 295 298 299 300 302 308 315 318 321 321 320
312 314 313 312 310 310 310 306 306 303 301 303 304 305 306 309 308 308 307 307 305 304 303 303 304 302 300 297 299 302 299 297 293 292 296 298 299 299 305 313 316 318 319
312 313 313 312 311 310 310 308 305 304 304 304 305 305 305 305 306 306 306 306 304 304 303 301 301 301 301 299 298 298 297 298 298 295 292 295 297 298 299 309 310 310 312
312 312 313 312 310 311 310 309 307 303 304 303 303 302 303 303 303 304 303 301 301 300 299 298 298 298 298 297 297 297 296 294 294 294 292 293 294 296 297 298 304 306 310

GFSSE_sfc_thetae_009.txt.gz
Theta_e
334 339 344 347 349 349 349 350 350 351 351 351 350 350 350 350 349 349 348 348 347 345 343 343 346 348 346 345 346 348 348 347 347 348 348 345 346 346 346 347 346 344 349
334 336 341 343 346 348 349 349 349 349 352 352 350 349 348 349 349 349 348 345 346 347 342 338 343 344 345 346 344 347 347 346 344 345 345 346 345 345 345 344 344 343 348
333 333 338 341 343 345 347 349 350 349 350 351 350 349 348 348 347 345 345 346 346 340 339 339 343 341 342 342 343 344 345 345 344 344 345 338 337 343 344 342 344 346 346
334 335 338 341 342 344 345 346 347 347 347 348 349 349 346 345 345 343 341 336 336 336 339 342 342 337 339 340 340 342 342 344 343 343 340 340 339 344 341 341 343 347 347
333 336 339 340 339 341 344 345 345 346 346 346 347 348 347 342 340 340 342 338 338 339 342 338 337 340 340 340 337 338 339 339 341 341 336 335 334 342 341 340 343 345 345
333 335 338 339 339 340 344 345 344 344 344 344 345 347 344 342 339 337 335 335 338 341 343 340 333 337 338 336 330 334 338 339 340 337 335 335 337 344 342 342 341 341 341
334 335 337 338 340 342 341 341 342 342 341 343 343 344 345 343 340 338 338 340 342 336 336 336 337 333 330 335 337 336 338 338 339 335 332 331 337 346 344 342 342 341 341
335 334 336 339 339 339 339 338 338 339 340 340 340 342 342 342 342 340 341 340 340 336 332 330 331 331 330 330 334 336 336 336 337 334 332 330 334 346 344 343 343 342 341
335 335 334 337 337 336 335 335 335 335 337 338 338 338 339 337 336 337 336 335 336 336 337 336 336 336 336 336 335 334 333 334 331 330 331 329 342 345 345 344 344 343 342
328 329 332 334 333 331 329 332 333 334 334 336 337 337 335 333 333 333 332 334 333 333 332 331 332 333 333 332 332 331 331 332 329 327 327 329 341 344 344 342 342 343 342
324 326 324 327 332 329 327 330 332 334 334 334 334 334 332 330 329 327 330 330 329 328 327 325 326 328 325 326 328 329 330 326 325 325 325 333 340 341 342 344 342 342 340
314 317 322 324 326 329 332 329 329 332 331 330 332 328 330 331 329 326 328 329 328 326 325 323 321 321 319 318 319 327 323 322 322 322 325 332 338 338 340 343 340 341 340
313 315 319 324 326 326 326 330 329 327 327 327 326 327 324 324 323 324 323 323 321 323 318 319 318 316 315 316 316 317 320 319 320 322 326 330 334 336 337 338 340 341 339
312 314 319 322 323 323 322 323 323 324 322 323 323 324 322 321 320 320 319 319 318 318 317 316 315 314 313 315 316 316 317 319 320 321 323 326 329 332 334 336 338 339 339
309 311 315 320 320 322 319 318 317 316 315 315 317 317 318 318 318 318 317 315 317 317 318 315 315 314 314 314 316 316 317 319 319 320 323 325 326 328 330 333 335 336 337
308 311 312 315 317 318 317 315 314 312 311 312 313 315 317 316 315 316 316 315 313 314 314 313 312 315 315 318 319 318 319 319 318 319 321 323 324 326 328 329 331 334 335
307 310 311 311 314 314 315 313 311 310 311 310 312 312 312 314 311 310 309 309 308 310 311 310 309 310 310 313 315 318 319 322 321 320 321 323 324 323 324 327 328 329 331
306 308 309 312 312 311 311 311 310 306 307 309 311 310 310 310 311 308 308 306 305 306 305 301 300 299 300 300 302 307 313 313 314 315 320 322 324 325 323 323 325 326 327
306 306 306 304 306 307 306 306 306 306 306 308 310 309 309 309 308 304 306 305 304 304 302 301 300 299 298 298 299 298 298 299 303 307 311 317 320 323 323 323 323 323 325
305 305 305 304 304 306 305 303 304 304 304 305 307 307 308 307 306 303 304 304 303 302 301 301 299 300 299 298 301 300 297 300 300 302 308 311 316 320 322 322 321 320 321
305 304 304 303 304 303 301 301 300 301 303 303 303 306 306 306 305 303 302 303 303 301 301 300 300 298 297 299 297 296 296 297 298 298 302 305 311 308 319 321 320 320 318
303 304 303 304 303 303 302 301 301 301 302 303 304 304 305 305 304 303 302 301 301 300 299 299 300 298 298 298 296 294 291 294 296 298 298 301 300 308 305 311 320 320 319
303 304 305 304 303 303 303 302 301 301 301 300 301 301 303 304 305 304 303 302 301 300 299 299 298 297 295 297 297 295 291 289 293 296 296 297 297 299 304 308 313 315 315
304 304 305 306 305 304 303 300 300 299 298 299 300 300 301 304 305 305 304 303 301 300 299 299 301 299 297 294 296 299 297 296 293 291 294 295 296 297 298 302 309 312 316
304 305 306 306 306 306 303 302 300 299 300 301 301 300 300 302 304 304 302 302 301 300 299 297 295 295 297 296 295 295 294 295 294 293 290 293 295 296 297 298 302 307 310
304 304 305 305 305 306 305 304 302 300 301 299 299 299 300 301 300 299 299 297 297 295 296 294 294 294 292 293 294 294 293 291 291 291 290 291 291 293 294 296 296 300 303

GFSSE_sfc_thetae_012.txt.gz
Theta_e
333 337 345 348 349 349 349 348 349 349 350 350 350 350 350 349 350 350 349 349 349 351 349 349 349 348 347 346 345 346 343 346 346 347 348 348 346 346 346 348 347 346 350
332 336 341 345 347 348 349 348 348 351 351 350 349 349 349 349 348 348 347 349 348 344 340 344 345 345 346 345 343 343 342 340 343 344 346 347 346 345 345 344 344 344 349
329 334 337 342 345 347 349 349 349 350 351 351 350 348 348 349 348 347 345 345 341 340 340 343 343 345 342 341 341 340 341 340 338 341 344 336 336 344 344 342 343 347 348
333 335 336 341 344 345 346 346 346 347 348 348 349 349 348 348 347 345 341 337 335 336 342 343 343 341 340 340 338 338 337 339 341 341 338 339 337 342 342 342 345 347 345
332 335 336 338 341 344 344 345 345 344 345 346 347 347 345 345 343 342 340 338 339 339 340 340 342 341 339 336 335 335 334 335 339 340 334 336 334 338 342 342 345 346 344
330 331 335 336 339 343 345 344 344 344 343 343 345 346 344 342 340 337 336 335 339 340 343 340 340 339 337 334 334 333 332 332 337 336 335 335 336 339 344 343 342 343 343
329 333 335 336 339 341 342 342 342 341 342 342 343 343 344 342 341 340 339 338 340 338 338 338 338 337 337 332 331 332 331 333 333 335 333 332 331 343 344 343 342 342 342
331 333 335 338 338 338 339 339 338 339 339 340 341 341 341 340 340 340 339 340 339 335 331 330 331 333 332 333 334 334 333 334 336 335 332 330 333 341 345 343 341 340 341
333 332 333 334 336 336 335 334 334 336 337 338 338 339 337 336 336 336 336 337 337 337 337 336 332 332 334 333 334 334 332 333 330 330 330 329 334 340 344 343 343 342 342
332 332 330 331 332 328 329 333 332 333 334 336 336 335 333 333 334 334 334 334 334 333 332 333 334 334 332 331 331 331 330 330 326 325 326 326 335 341 344 343 342 342 342
327 327 330 330 330 327 324 329 332 334 333 334 334 334 330 328 327 327 330 332 330 328 327 326 325 326 324 325 326 328 329 325 322 321 320 327 332 341 342 342 340 341 341
318 319 320 323 326 327 329 327 327 331 330 329 329 329 329 326 324 325 327 329 327 326 325 323 322 321 318 315 316 321 322 321 320 321 322 329 333 337 338 340 340 340 341
313 317 320 323 324 323 325 325 327 326 326 326 327 325 325 323 323 322 320 322 319 322 317 317 315 314 313 313 313 314 316 317 318 320 322 326 330 333 335 337 339 340 340
311 314 319 322 322 320 322 325 324 323 323 322 322 322 320 319 318 318 318 318 317 316 314 314 313 313 311 311 312 313 314 315 318 319 321 323 326 329 332 334 335 336 337
309 313 317 319 320 319 317 315 314 315 316 316 316 317 318 319 317 317 316 313 314 314 314 313 317 318 315 313 314 314 314 315 317 318 319 322 324 327 329 332 333 334 335
308 311 315 316 318 318 315 314 311 311 310 311 313 314 316 316 315 316 314 314 312 313 312 310 309 309 309 311 314 316 316 316 319 319 318 319 322 324 326 328 331 333 333
307 309 312 313 314 313 315 313 311 309 309 310 311 311 312 313 310 311 310 309 310 310 310 307 306 304 303 305 303 306 312 313 312 314 317 320 321 322 324 326 328 330 330
305 308 309 314 312 312 313 312 310 309 307 308 310 309 309 311 310 307 306 305 304 306 305 299 299 297 297 297 297 298 303 302 302 303 306 312 319 323 323 324 327 327 328
305 307 306 307 309 308 308 308 306 306 304 306 309 308 309 309 308 304 306 304 303 303 300 299 298 298 296 297 298 298 297 296 298 301 301 305 312 316 319 322 323 324 326
303 304 304 301 305 305 303 302 302 302 302 303 307 307 308 307 307 302 304 303 302 301 300 299 297 298 298 297 300 298 296 297 297 297 298 304 306 311 308 318 320 321 321
302 303 303 302 301 302 300 299 298 300 301 301 303 308 307 306 305 302 301 303 302 300 299 299 298 297 296 297 295 295 295 295 296 297 297 298 301 302 307 304 311 319 321
301 301 301 302 302 301 300 299 299 299 300 301 302 302 306 305 304 302 301 301 300 300 299 299 299 297 296 296 294 292 290 293 294 296 298 297 297 299 301 303 305 310 316
300 301 303 302 301 302 301 300 299 299 299 299 299 300 302 304 304 303 301 301 299 299 298 297 297 296 294 296 295 293 289 287 293 295 295 297 297 296 297 300 302 306 312
301 301 302 304 303 302 302 299 298 299 299 300 300 299 301 303 303 303 302 301 300 299 298 298 298 296 295 293 295 298 295 293 289 288 293 296 297 297 296 297 298 301 306
302 303 304 305 304 305 303 301 299 297 300 301 298 298 298 300 302 303 302 301 300 299 296 294 293 291 294 292 292 291 291 291 291 288 286 289 293 295 296 296 296 297 299
301 302 303 303 304 304 304 303 300 299 300 299 299 297 297 298 297 298 299 297 296 296 295 294 293 292 292 293 292 291 291 288 288 287 286 287 287 291 293 295 294 294 294

GFSSE_sfc_thetae_018.txt.gz
Theta_e
328 336 346 348 348 348 349 348 348 348 349 350 349 348 349 348 348 346 348 348 350 350 347 347 346 346 343 343 345 347 346 345 346 346 346 346 346 346 346 348 346 344 347
331 334 343 346 348 347 349 350 349 349 350 350 349 347 348 347 347 345 347 346 346 344 345 345 345 345 343 342 345 344 343 343 343 344 346 346 347 345 345 345 344 344 344
330 333 338 344 346 347 348 350 350 351 351 349 349 348 348 348 348 346 344 340 338 341 342 343 342 344 343 342 343 343 342 341 340 342 343 337 337 343 344 344 343 347 344
330 331 336 343 344 345 345 346 347 347 348 350 349 348 348 347 346 343 339 336 334 339 340 340 341 343 343 341 341 341 340 340 340 340 337 336 337 339 342 343 343 345 345
330 331 336 341 342 343 343 343 344 345 346 346 346 346 345 345 344 341 339 336 339 339 339 339 340 339 340 340 338 338 336 335 337 336 334 335 335 337 341 340 343 345 345
326 326 334 338 340 342 342 342 341 341 343 344 345 344 343 340 339 335 333 334 339 340 340 338 340 340 339 336 333 333 332 332 333 330 333 336 335 337 340 342 341 341 343
324 325 329 336 339 341 341 340 340 340 340 341 342 343 342 342 341 340 338 337 340 339 338 340 338 339 338 335 335 334 333 333 332 332 332 331 332 338 340 342 343 340 342
326 328 329 336 336 338 339 338 337 338 339 339 339 341 341 340 339 339 339 339 337 334 333 332 331 336 333 332 332 333 332 333 331 330 330 329 332 335 338 339 341 339 341
328 328 328 329 332 334 333 334 334 336 336 337 337 336 336 336 336 337 336 337 336 336 336 334 332 333 333 332 331 330 329 330 324 324 326 326 332 334 336 339 342 341 340
326 327 325 326 327 325 324 332 332 333 334 335 335 334 332 332 333 334 332 333 331 331 330 330 328 326 325 324 325 328 327 325 320 320 320 323 331 337 338 339 342 342 341
326 325 325 326 326 324 322 326 331 333 333 334 334 332 328 324 324 324 330 330 329 327 326 325 324 323 321 319 321 321 321 318 317 318 319 325 328 332 337 337 339 340 339
323 325 325 325 325 324 326 323 324 326 326 326 327 326 324 322 321 323 326 328 327 326 325 323 322 320 315 311 312 315 313 315 315 316 318 324 326 330 331 333 336 336 337
323 323 324 325 324 324 324 321 322 323 323 324 323 324 323 322 321 319 318 319 317 321 314 314 312 312 310 309 310 311 313 314 313 315 318 323 325 329 331 330 331 334 335
319 320 320 319 320 319 321 322 321 322 322 321 322 321 320 319 318 317 316 316 315 314 311 311 311 312 311 311 311 312 312 313 314 315 317 320 319 320 326 330 330 331 332
315 315 315 318 318 316 320 319 320 320 321 320 319 319 319 317 316 316 315 313 313 312 311 311 311 310 310 309 310 311 312 313 313 312 311 314 315 317 320 324 327 330 331
311 312 314 316 317 315 315 315 316 316 317 316 315 315 316 317 315 314 313 312 311 312 310 308 306 304 303 305 303 303 304 311 305 304 304 305 312 317 320 319 321 323 325
309 310 312 315 315 313 313 312 311 310 311 310 312 312 313 315 313 313 312 310 311 310 308 306 304 299 298 299 298 300 302 303 301 301 302 304 306 314 315 316 314 316 319
306 309 312 316 314 313 312 311 310 308 307 307 308 309 310 312 311 310 310 309 310 308 307 301 298 296 296 296 296 297 297 298 299 300 300 302 303 307 308 311 312 312 314
305 308 310 310 311 310 310 309 308 307 306 305 305 307 308 308 310 307 306 307 306 304 304 299 297 296 295 295 295 296 295 296 297 299 298 300 301 302 303 308 308 309 311
303 306 307 307 309 308 306 304 302 301 301 302 302 305 307 307 307 306 305 304 303 301 300 297 296 296 296 296 297 297 295 296 296 295 296 300 299 301 300 302 301 303 307
302 304 305 303 304 304 300 299 298 300 300 300 301 302 305 306 306 305 303 303 303 300 300 298 296 295 295 295 294 293 294 295 295 295 296 297 298 299 300 300 300 301 301
301 303 302 301 300 302 300 298 298 297 298 299 300 301 302 304 306 306 304 302 302 301 298 297 296 295 295 295 293 291 289 292 293 294 295 296 296 298 298 298 299 299 299
299 300 301 300 300 299 299 298 298 297 298 297 298 298 300 302 304 304 305 303 301 302 301 299 297 296 295 294 294 293 288 287 289 292 293 293 295 293 295 296 296 297 299
298 298 298 300 301 301 300 298 297 295 296 298 298 298 300 300 301 303 304 303 301 301 301 299 297 296 294 292 293 296 293 292 285 284 288 292 290 291 292 293 294 295 297
297 298 299 301 301 301 301 300 299 298 298 300 299 299 299 299 298 300 301 303 301 299 300 298 296 295 294 293 290 289 289 290 290 286 284 286 289 290 291 292 293 294 295
298 298 299 300 301 301 301 301 300 297 298 298 298 298 299 298 296 296 297 297 296 293 292 293 294 294 293 294 293 292 291 289 287 287 284 286 285 289 291 292 292 293 294

GFSSE_sfc_thetae_021.txt.gz
Theta_e
336 343 346 348 348 349 348 348 348 348 349 350 351 351 350 350 349 348 348 347 347 348 348 347 346 346 343 344 344 346 346 346 345 347 347 346 345 345 347 347 347 345 349
338 343 344 347 348 348 349 348 348 348 350 349 349 349 348 348 347 346 346 347 347 345 345 345 346 345 344 342 343 343 343 343 343 345 346 346 346 344 345 345 346 345 348
337 342 343 345 346 347 349 350 350 351 350 350 349 348 348 348 347 345 341 338 340 341 342 342 342 344 342 342 342 342 342 341 341 342 342 340 340 344 343 342 346 345 345
334 338 342 343 344 345 346 347 348 349 350 349 349 348 348 347 346 343 338 337 338 340 339 340 341 343 342 341 341 340 340 339 339 340 341 339 339 340 342 343 342 344 344
332 337 341 341 342 343 343 344 345 346 347 347 348 348 347 346 344 341 337 336 338 340 340 340 342 341 340 339 336 333 333 333 336 337 340 340 339 338 341 342 342 342 343
331 336 338 339 340 341 342 342 341 342 344 344 345 345 343 341 339 336 335 335 337 340 341 340 341 340 337 335 334 333 333 333 334 335 339 339 340 337 340 341 342 341 341
330 333 337 337 339 341 340 339 340 341 340 341 342 343 343 342 341 340 336 337 339 337 336 337 337 338 336 333 333 334 333 334 336 338 338 338 338 337 341 340 342 341 340
329 332 335 337 338 339 339 338 338 338 338 339 340 340 339 339 338 338 338 338 337 337 336 333 334 333 333 333 334 332 332 332 335 333 333 333 334 335 337 339 340 340 339
332 333 334 335 336 334 334 334 335 336 337 337 337 336 335 336 336 336 336 336 335 336 336 335 333 331 330 329 329 329 329 327 332 331 328 332 331 336 338 338 342 341 340
333 333 335 336 335 334 334 332 333 334 335 335 335 333 332 333 333 333 334 332 332 331 331 330 328 326 325 324 324 326 324 325 328 328 329 329 329 333 337 338 339 341 339
331 334 335 335 335 334 332 332 333 333 334 334 335 332 331 335 333 332 331 330 329 327 327 326 325 323 320 320 321 320 321 325 325 326 326 325 328 331 333 334 336 337 338
331 334 335 336 336 335 332 332 334 334 336 337 338 336 336 335 334 331 329 328 327 326 325 323 321 318 318 323 323 320 325 326 326 326 327 324 327 330 331 331 332 335 335
334 335 335 335 336 336 335 333 333 334 336 336 335 336 335 334 335 333 332 331 332 325 327 324 324 325 322 325 325 326 325 325 327 327 324 320 320 324 328 331 331 331 332
332 335 336 335 334 334 334 334 333 332 334 334 335 334 335 334 333 332 330 330 330 330 326 326 326 326 324 322 321 322 323 326 325 323 318 315 315 317 322 325 328 331 331
330 332 332 330 328 329 329 332 332 332 333 334 333 333 333 332 331 331 329 328 328 327 325 324 324 322 320 318 320 318 318 322 317 314 313 311 315 317 320 322 324 325 326
328 330 327 326 328 328 328 329 331 332 332 332 332 331 329 330 329 327 327 326 325 325 324 324 321 316 314 314 311 311 312 318 311 312 312 312 316 315 316 317 317 318 320
324 326 323 325 326 327 325 326 326 328 326 327 328 328 326 326 326 326 326 325 325 324 324 321 317 314 310 309 308 309 311 312 310 310 311 312 312 312 312 315 312 313 315
322 320 322 321 324 326 324 323 323 322 321 320 320 322 323 323 324 324 323 323 325 323 322 319 316 311 308 307 308 308 308 308 308 308 308 309 310 310 309 310 310 311 312
318 318 319 322 323 323 322 321 321 321 320 320 319 318 319 320 321 321 320 321 323 322 320 318 314 310 307 307 306 307 308 307 308 306 307 308 308 309 309 307 308 308 308
315 318 319 320 320 320 319 318 318 316 317 316 316 315 316 317 318 318 318 318 318 317 317 316 313 310 308 307 304 304 307 307 307 307 307 306 306 308 308 308 309 306 305
312 314 316 317 318 317 316 314 314 312 312 312 312 312 313 313 314 316 316 316 316 314 314 315 313 310 307 307 305 305 305 307 307 306 307 307 305 306 308 308 306 306 303
310 312 313 313 309 309 311 310 309 308 309 308 309 311 311 311 312 312 313 313 314 313 313 312 310 308 307 307 304 303 300 303 304 305 305 304 306 305 305 303 304 301 302
307 307 307 307 308 308 308 308 309 310 310 309 310 310 311 311 311 310 311 312 312 311 311 313 311 308 307 306 306 303 299 297 302 303 303 303 303 303 301 302 299 300 300
306 308 309 309 309 309 310 309 308 306 305 307 308 308 308 310 310 309 309 309 310 310 309 310 310 309 307 305 304 303 304 302 298 297 298 300 301 298 298 299 299 299 299
307 308 309 309 309 309 308 308 307 305 305 306 306 306 307 308 309 308 307 307 307 308 309 308 308 306 306 302 303 303 301 299 297 296 295 296 295 296 297 298 299 299 299
308 309 309 308 308 308 308 308 307 304 304 303 304 304 305 305 306 305 303 304 304 304 303 303 302 301 301 300 299 299 297 297 295 294 292 293 293 296 297 297 297 297 298

GFSSE_sfc_thetae_027.txt.gz
Theta_e
344 347 348 349 350 349 348 349 349 350 352 352 352 352 351 351 350 350 349 349 349 348 347 346 346 345 344 343 344 344 344 344 345 345 344 344 344 346 346 346 347 342 346
344 347 347 349 350 349 349 349 350 350 351 350 349 350 350 349 348 347 346 347 346 344 345 345 345 345 343 342 342 342 341 341 342 342 341 343 345 345 344 344 346 344 346
343 346 346 347 350 350 350 350 350 350 349 349 349 348 347 347 346 343 341 342 343 342 342 342 343 345 344 343 342 341 340 340 340 340 342 337 341 345 344 343 344 345 345
342 345 346 345 347 347 348 349 350 349 348 348 347 346 346 345 343 342 341 340 341 342 343 344 344 343 342 339 337 336 334 334 337 339 337 339 336 343 342 341 342 342 342
338 344 344 343 344 345 346 346 347 347 347 347 348 347 346 344 343 341 339 339 339 342 341 341 343 339 337 336 334 333 331 332 334 333 336 338 339 340 341 340 342 343 343
337 340 339 340 341 342 342 342 344 344 345 346 346 345 343 342 340 337 337 340 341 339 342 342 341 338 335 334 333 333 333 334 334 334 336 338 338 339 340 338 341 341 341
331 334 337 339 341 341 339 339 340 341 342 343 344 343 343 342 342 341 339 339 338 337 336 336 337 335 333 332 333 334 334 335 334 334 335 336 337 338 338 339 340 341 342
329 332 332 338 340 340 339 339 339 340 340 340 340 340 340 339 339 339 338 338 338 336 335 335 335 335 334 333 333 332 331 331 334 333 332 334 334 335 339 338 339 339 341
330 332 334 336 336 337 337 337 338 338 338 337 336 336 336 337 337 337 337 336 336 335 334 333 332 331 330 329 329 329 328 330 332 331 330 331 332 333 336 338 338 340 340
331 333 334 336 337 339 338 335 336 337 337 336 334 334 335 335 335 335 335 334 333 333 331 330 328 327 326 325 325 325 327 329 332 329 330 327 330 332 334 335 337 338 339
331 334 336 335 337 336 335 335 334 336 337 335 335 333 333 338 337 336 332 331 329 328 327 326 325 324 324 325 325 324 325 326 326 326 329 328 329 329 332 332 333 336 336
330 333 336 338 338 338 332 335 336 334 337 337 337 337 336 337 336 331 333 330 329 329 328 327 325 324 323 325 325 324 325 325 324 324 326 325 324 326 328 331 331 332 333
330 331 333 339 339 337 334 333 333 334 335 336 338 337 337 335 336 334 334 335 336 330 331 328 327 326 325 325 323 324 324 324 322 322 322 319 317 321 325 327 329 330 330
329 330 333 338 338 336 333 331 331 331 334 333 336 337 335 332 333 333 330 330 330 329 329 329 327 327 328 326 325 323 323 322 320 321 318 316 313 317 321 325 327 327 328
326 328 333 339 340 333 332 332 333 333 333 335 335 335 334 331 331 330 330 328 327 327 326 325 325 324 325 324 322 320 319 319 320 320 318 315 314 317 319 321 322 324 324
326 329 332 338 340 332 330 332 332 334 333 333 333 332 332 332 330 328 327 325 324 324 324 324 322 322 322 321 320 319 317 315 316 319 315 316 318 315 317 317 318 318 318
327 329 332 337 339 333 330 330 329 330 329 329 329 329 329 329 328 327 325 324 323 324 328 324 324 323 322 321 319 317 315 316 315 316 314 314 315 313 317 313 314 315 316
327 328 331 333 335 335 329 330 329 328 327 326 326 327 326 327 327 327 324 323 324 325 323 322 321 320 320 319 318 317 316 315 315 316 315 314 314 313 313 314 312 313 312
328 329 330 333 335 334 330 328 329 327 326 325 326 324 324 325 325 324 323 323 325 322 323 323 322 323 319 319 317 318 317 314 315 313 314 315 316 314 313 314 314 312 310
327 329 330 331 332 331 330 329 325 324 324 324 322 321 321 321 322 322 321 322 323 321 322 322 324 321 321 320 317 316 319 317 317 316 314 313 314 315 314 313 310 307 309
322 322 327 328 328 326 326 322 321 319 320 319 319 321 321 321 320 320 319 319 321 319 321 323 322 321 320 322 318 318 318 319 318 315 317 315 314 314 315 314 313 311 306
319 320 321 321 320 319 319 319 319 319 319 319 321 320 319 319 318 316 316 315 315 315 318 319 320 317 319 321 315 314 309 313 316 316 315 315 316 314 313 313 313 313 311
318 318 318 318 318 318 319 319 318 318 318 316 317 317 317 317 315 315 314 313 314 315 314 316 316 315 313 316 318 313 307 305 310 315 314 314 315 315 314 313 312 312 310
318 319 318 318 317 317 319 317 317 315 314 316 316 315 315 316 313 312 311 312 312 312 313 313 312 315 314 310 313 312 312 311 305 305 310 310 312 311 314 313 312 311 309
318 318 318 317 316 317 317 317 316 314 313 313 313 312 311 311 310 309 310 310 311 310 312 311 311 310 309 308 308 307 306 305 307 300 300 306 307 309 309 309 310 309 308
318 318 318 316 315 315 316 315 313 312 310 309 309 308 308 308 308 308 308 308 309 309 309 308 308 306 305 304 304 302 298 296 297 293 294 298 299 305 306 307 306 306 307

GFSSE_sfc_thetae_030.txt.gz
Theta_e
340 345 350 351 350 350 349 349 350 351 352 353 352 352 352 351 351 350 350 350 350 350 347 347 349 348 344 343 343 345 345 345 345 346 345 346 346 346 346 348 346 341 349
344 345 348 350 350 350 350 350 350 350 352 352 351 350 350 350 349 348 348 348 348 346 343 344 346 346 344 343 343 343 343 343 342 343 344 344 347 345 345 347 346 344 346
342 345 347 348 350 351 351 351 350 350 351 351 350 350 349 348 345 344 345 345 345 344 344 345 345 345 344 342 341 340 339 340 340 341 342 336 336 343 344 346 346 347 347
344 343 345 346 347 348 349 350 350 350 350 349 349 348 348 346 344 342 341 342 342 343 343 344 344 343 341 338 337 335 335 336 336 337 332 336 339 343 343 344 344 344 344
342 341 341 343 344 346 347 348 348 348 349 349 349 348 346 344 343 341 340 342 342 341 342 343 341 338 336 336 335 335 335 336 336 332 327 334 336 342 342 342 343 344 343
338 339 338 339 341 343 344 345 345 345 346 346 346 345 344 343 341 339 343 341 340 339 341 341 339 337 335 335 334 335 335 336 335 328 332 336 337 341 340 341 340 341 341
334 335 335 338 340 341 341 340 342 343 344 344 344 343 342 342 341 341 340 339 338 337 336 336 335 335 334 334 335 334 334 334 331 330 330 333 336 341 340 339 340 340 340
329 330 332 339 340 340 340 340 340 340 340 341 341 340 339 339 339 339 338 338 338 336 336 335 335 334 333 333 332 332 332 332 330 329 331 330 336 337 338 339 340 340 340
328 329 331 333 336 337 337 337 337 337 337 337 337 337 338 338 338 337 337 336 335 335 334 333 332 330 329 329 330 330 330 331 327 328 330 327 335 335 336 336 337 339 338
328 329 332 332 334 334 334 335 336 336 335 335 335 335 335 335 336 336 335 334 333 332 331 330 328 328 327 327 327 327 326 326 323 326 326 327 334 334 333 334 334 337 338
328 333 334 334 337 338 335 335 335 336 335 334 334 333 332 335 334 335 332 332 331 329 328 327 326 326 326 327 328 327 326 321 320 320 325 330 331 331 331 332 333 334 335
328 330 335 336 337 336 329 333 335 335 335 335 335 334 335 333 333 331 332 331 331 330 330 329 329 328 326 321 322 326 321 321 319 318 323 327 327 326 326 329 332 332 333
329 331 333 339 338 336 334 332 333 334 335 336 335 334 335 333 334 333 330 329 329 331 329 328 326 324 324 322 321 320 320 319 317 317 321 324 324 322 323 327 329 331 332
327 329 333 337 337 334 331 331 332 330 334 332 335 335 334 331 331 329 328 327 327 327 326 323 323 324 322 324 322 321 319 318 316 316 316 320 320 317 320 325 328 329 331
327 328 332 337 337 334 330 332 333 331 333 333 332 334 332 329 329 328 326 325 324 323 321 321 319 320 320 321 321 319 317 316 316 315 314 317 317 317 318 323 326 327 328
326 328 334 336 339 332 329 331 331 333 332 332 330 330 329 329 328 326 324 323 321 321 320 319 318 319 318 319 317 317 315 314 312 311 314 311 317 320 319 320 322 324 323
326 329 332 336 339 333 330 330 328 328 326 326 327 327 326 326 326 324 323 322 321 322 321 321 320 319 318 318 316 316 315 314 312 311 312 311 313 317 319 320 319 319 319
326 327 331 332 337 335 332 329 327 326 326 325 324 324 324 324 324 323 322 321 322 322 320 319 318 317 316 315 314 314 313 312 311 311 312 310 310 309 315 319 318 317 318
328 328 329 331 333 334 333 328 328 326 324 325 324 323 324 322 323 321 319 320 322 319 319 318 316 316 314 314 315 314 314 312 311 312 310 311 310 310 308 317 316 317 317
327 329 329 330 333 333 330 327 325 323 323 324 322 320 321 319 321 319 318 318 319 317 316 316 316 316 315 315 316 315 314 315 313 310 309 311 310 310 309 309 310 310 315
325 325 326 324 326 325 325 321 319 318 318 318 319 320 319 319 318 316 315 315 314 313 313 313 312 311 312 314 313 312 312 313 313 313 312 309 309 310 309 309 307 306 307
319 320 320 319 319 318 318 318 317 317 318 318 319 317 318 318 316 314 313 312 312 310 310 310 310 309 309 310 308 308 304 306 309 312 313 311 309 310 309 310 309 307 304
318 318 317 317 318 318 318 317 317 317 317 315 316 316 315 316 315 314 311 310 310 309 307 307 307 306 305 307 307 305 301 299 303 307 308 310 311 311 310 310 309 308 307
318 319 318 318 317 317 318 316 316 314 311 312 312 313 312 312 311 309 309 308 307 308 306 306 307 306 304 302 304 307 304 302 298 298 304 306 310 310 310 310 310 310 308
318 318 318 317 316 317 316 315 313 311 310 310 309 309 308 309 309 308 306 305 305 305 305 305 304 302 302 300 299 298 297 297 299 297 295 297 303 304 305 306 305 306 306
319 318 318 316 315 316 314 314 312 310 309 307 307 306 306 306 305 304 305 304 305 304 302 302 301 301 300 298 296 296 295 293 292 291 290 291 291 296 298 299 301 304 306

GFSSE_sfc_thetae_033.txt.gz
Theta_e
340 346 349 349 348 348 348 349 349 350 351 351 352 351 351 350 350 350 350 350 350 349 347 347 349 346 344 343 343 343 343 343 342 343 344 344 344 345 345 348 346 343 349
342 347 346 348 349 349 349 349 350 351 351 352 351 350 349 349 348 348 347 347 347 346 346 346 346 347 345 343 343 342 342 341 340 340 342 342 346 344 345 346 345 345 347
342 345 347 347 349 350 350 350 350 351 351 351 350 350 348 346 346 345 344 345 346 345 346 346 345 344 343 341 339 338 338 338 337 338 339 334 335 344 342 345 345 347 347
342 344 345 345 347 348 349 349 349 350 350 349 349 349 347 345 344 343 342 343 345 343 343 344 343 341 339 338 336 336 337 336 336 336 327 333 335 340 340 343 344 345 345
338 340 342 343 344 346 347 347 347 348 348 348 348 348 346 344 342 341 343 343 342 343 344 343 340 338 336 336 336 336 336 337 336 333 324 331 335 341 339 340 341 343 341
334 334 337 339 342 344 345 346 346 346 345 345 345 345 344 343 341 342 340 340 339 339 341 341 338 336 335 334 335 336 335 335 334 326 326 335 335 339 340 341 339 338 339
329 331 334 337 340 341 342 341 343 343 343 343 343 343 342 341 341 340 339 338 337 336 336 336 335 334 334 334 334 333 332 332 329 325 327 332 337 342 340 339 340 340 340
327 329 333 338 339 339 339 339 339 339 340 340 341 340 340 339 339 339 338 337 337 336 335 335 333 333 332 332 332 331 330 330 329 325 328 329 338 340 340 338 338 338 339
326 327 329 332 335 336 335 335 335 336 336 336 336 337 337 337 337 338 337 336 335 334 334 332 330 330 329 329 329 328 327 328 323 321 327 326 337 336 336 336 337 337 338
325 327 326 328 330 330 331 334 334 333 333 333 334 334 334 334 335 335 335 335 334 334 332 331 329 329 328 328 328 328 327 327 317 319 323 326 335 334 334 334 332 333 336
323 326 327 326 328 328 328 333 333 334 333 332 332 332 331 330 333 333 332 333 333 332 330 329 328 327 326 326 326 327 327 320 316 317 322 330 332 331 331 331 331 332 334
322 326 327 327 329 329 331 330 329 332 331 330 330 329 329 329 330 331 329 331 331 331 330 330 329 328 327 320 318 325 321 318 317 315 321 328 330 327 327 327 330 332 333
322 326 329 327 327 326 327 327 329 329 329 330 330 327 329 326 327 326 325 325 324 328 325 327 325 324 321 319 318 318 318 316 313 314 321 326 327 324 324 325 327 329 332
322 325 328 328 326 323 322 323 324 325 326 327 330 327 324 323 322 321 324 324 323 324 323 323 321 321 319 319 319 318 317 315 313 313 316 321 322 322 322 323 326 328 330
321 325 327 326 326 323 321 322 322 323 325 325 326 326 323 321 320 320 319 319 317 316 316 315 315 316 315 316 317 317 316 314 313 311 311 318 319 321 320 322 324 327 329
322 326 327 327 326 322 322 321 321 322 324 322 324 323 324 322 319 319 317 317 316 316 315 314 313 313 314 315 315 315 314 312 311 310 309 310 317 319 321 321 322 325 327
320 325 327 329 324 320 321 321 320 324 318 319 321 320 321 320 318 317 316 316 316 317 315 315 314 314 314 315 314 314 314 313 311 309 308 309 310 318 319 322 323 323 324
319 324 328 334 327 324 321 320 319 319 317 316 316 319 319 319 318 316 315 314 316 316 315 314 314 313 312 312 311 312 312 311 310 310 309 308 309 311 315 319 322 323 322
322 325 325 329 328 330 325 322 318 317 316 315 317 316 316 317 317 314 313 313 314 314 314 313 313 311 311 311 312 312 310 310 310 312 309 308 307 309 307 315 319 319 321
320 321 321 322 322 323 322 320 319 315 315 315 313 313 314 314 315 312 312 311 312 310 309 309 308 308 309 309 312 313 312 311 311 310 308 309 309 308 307 306 313 313 317
315 315 314 313 314 314 312 310 309 309 310 311 312 313 313 313 313 311 310 309 308 307 306 306 306 305 305 307 306 307 306 308 308 309 310 308 308 309 308 307 308 309 310
312 311 312 311 311 311 310 309 310 309 310 310 312 313 313 311 311 310 307 306 305 305 305 304 303 301 302 303 301 302 298 302 303 306 306 308 307 308 310 311 308 307 306
309 308 310 310 310 311 311 311 311 310 309 308 307 308 307 307 307 305 304 304 303 303 302 301 301 301 299 301 301 299 296 294 298 302 303 305 305 306 307 311 311 308 305
308 309 309 310 309 311 310 309 307 305 304 305 305 305 304 306 305 304 302 302 302 302 301 301 302 299 299 295 298 299 297 297 293 292 298 299 298 300 299 302 307 310 310
309 308 309 309 309 310 309 308 306 305 305 305 304 304 304 304 303 302 302 301 301 301 299 298 298 298 300 298 296 295 295 292 291 288 287 290 294 296 297 298 300 304 307
309 308 308 308 308 308 307 307 305 304 304 303 303 302 301 301 300 300 301 300 299 298 298 297 296 298 295 295 295 293 292 290 290 289 288 289 289 292 293 295 296 301 302

GFSSE_sfc_thetae_036.txt.gz
Theta_e
341 345 346 348 348 349 349 349 349 349 350 351 351 350 350 350 350 349 349 348 348 348 347 347 347 346 345 343 342 342 341 341 341 341 341 342 344 343 346 346 347 344 348
343 344 345 347 348 349 349 349 350 350 351 351 350 349 348 348 348 347 348 348 348 347 347 347 346 345 343 342 341 340 339 339 338 339 340 339 343 342 342 345 345 345 347
342 344 346 346 349 349 350 350 351 351 351 350 349 347 347 345 343 342 342 345 346 344 345 344 344 343 341 339 337 337 337 338 337 337 336 331 333 341 338 341 342 346 347
343 344 344 346 347 348 348 349 349 349 350 349 348 346 344 343 342 342 343 344 344 342 344 344 341 339 338 336 335 335 336 336 337 336 325 334 335 342 339 342 342 340 343
340 341 343 343 345 347 347 347 348 348 347 347 347 345 344 342 343 342 341 342 342 343 343 342 340 337 335 334 335 335 335 335 335 329 324 328 333 341 338 340 341 342 341
333 336 338 340 343 345 346 346 346 346 345 345 345 345 343 342 341 340 339 338 338 338 339 337 336 334 334 334 334 333 333 333 332 323 325 333 334 338 338 340 340 339 339
329 331 334 337 341 344 344 344 344 344 343 343 343 343 341 340 339 338 337 337 336 336 336 335 335 333 333 333 332 332 332 331 327 322 327 330 332 339 339 339 339 338 338
328 330 333 338 338 339 340 340 339 339 340 340 340 341 339 339 338 337 337 337 336 335 334 333 332 331 330 331 330 330 328 329 324 320 323 328 335 337 336 338 338 338 337
327 328 329 332 334 335 335 335 335 336 336 337 337 337 337 336 337 337 337 335 335 334 333 331 330 330 329 329 329 328 327 327 318 316 325 325 336 337 335 336 334 336 336
323 326 326 328 329 329 329 333 333 333 333 334 334 334 334 334 334 335 335 336 334 333 332 331 330 329 328 327 327 326 326 326 316 314 321 323 335 335 335 333 332 332 334
322 322 324 326 327 327 328 331 333 333 333 332 332 332 330 330 331 332 331 333 334 332 331 330 329 327 326 326 326 325 327 319 316 315 319 326 333 334 334 333 332 331 333
320 323 323 324 325 326 330 329 328 330 329 328 328 328 328 326 327 331 330 331 332 330 330 330 330 329 327 320 317 322 318 317 316 313 316 326 331 332 330 329 330 331 332
322 325 324 326 326 325 326 326 325 327 327 327 327 326 326 328 326 328 323 325 322 327 323 325 324 322 321 319 317 316 317 316 313 313 315 326 328 328 328 327 327 329 330
322 324 326 325 326 323 324 325 326 326 326 327 327 326 323 322 320 322 322 321 321 321 321 321 320 321 319 319 318 317 317 315 313 312 313 323 326 326 326 325 325 327 328
323 325 325 324 322 319 320 320 322 323 325 327 326 325 321 320 318 318 317 316 315 314 314 313 314 313 312 313 314 314 315 315 313 312 310 318 322 324 324 324 324 324 326
324 324 324 323 322 319 320 320 319 322 322 321 324 323 321 320 317 317 315 315 314 314 314 313 312 312 312 313 313 314 314 313 312 311 309 309 318 321 323 322 323 323 324
324 325 324 322 320 320 320 320 319 322 319 321 321 320 321 319 318 315 314 314 314 315 314 313 312 312 312 313 311 312 313 313 312 311 309 308 309 318 319 322 324 324 323
324 324 324 326 322 323 322 319 317 318 315 316 318 317 318 318 316 314 313 312 312 312 312 311 310 310 309 309 309 310 310 311 311 310 309 307 307 309 314 319 322 324 325
321 323 325 325 323 324 324 321 317 315 313 314 314 315 316 316 316 312 311 310 311 309 308 308 306 307 306 305 307 307 308 309 309 312 309 308 306 308 309 313 318 320 323
314 317 318 319 322 323 321 318 313 312 310 312 311 312 314 315 313 310 309 308 307 306 305 304 303 304 303 303 306 305 305 307 307 307 308 310 308 307 307 307 308 314 318
314 313 314 314 314 314 312 311 309 308 308 309 311 313 313 311 309 306 305 305 304 304 303 303 302 301 300 302 300 301 301 303 303 303 304 305 306 308 308 308 305 308 311
311 312 310 309 309 309 309 308 309 308 308 308 309 307 307 305 305 303 302 302 302 301 301 300 299 299 300 300 297 297 295 298 299 300 301 302 301 303 302 303 305 308 307
306 307 308 308 308 308 309 308 307 307 306 304 304 303 304 304 303 301 301 300 300 301 299 299 298 297 296 297 297 296 292 290 292 296 296 297 296 297 297 299 301 303 307
305 306 307 307 308 309 308 306 305 303 302 302 301 301 302 302 301 301 301 300 300 300 298 298 299 297 299 297 297 297 295 295 287 287 292 293 293 294 294 296 296 301 305
307 306 306 307 307 306 306 305 304 303 303 304 303 302 301 300 300 302 301 299 298 298 297 296 295 295 295 293 292 291 290 290 289 286 285 288 291 292 292 292 294 298 302
306 305 305 304 304 305 305 304 303 302 302 301 301 300 299 299 299 299 299 297 296 296 295 295 294 293 292 292 291 290 290 289 289 289 287 287 287 288 291 291 292 295 297

GFSSE_sfc_thetae_039.txt.gz
Theta_e
341 342 346 348 349 349 348 348 348 348 350 350 349 349 349 349 349 348 348 348 346 347 346 347 346 345 344 343 341 340 339 338 339 338 339 341 342 343 346 347 346 343 346
342 342 345 347 349 349 349 348 348 350 350 348 348 348 348 347 346 346 347 347 347 346 346 345 344 344 342 340 338 338 337 337 338 338 337 337 340 340 341 344 345 344 345
340 342 344 346 348 349 350 350 350 351 349 347 346 346 344 343 342 342 343 344 345 344 344 343 342 341 339 338 337 337 337 336 336 336 333 328 331 338 337 342 344 344 344
342 343 343 345 347 348 349 349 349 349 348 346 345 344 343 342 343 343 342 344 344 343 342 341 340 338 336 335 335 335 335 335 334 333 324 330 333 341 338 340 342 341 341
340 341 343 344 345 347 347 347 348 348 347 346 346 344 343 343 342 341 340 341 342 341 340 339 337 335 333 333 333 333 333 333 332 327 323 326 331 337 336 339 340 340 340
334 337 340 341 343 345 346 347 346 346 345 345 345 344 343 342 340 339 338 338 337 337 336 335 334 333 333 333 333 332 332 331 329 320 324 326 332 338 338 340 340 340 339
331 335 337 339 342 345 345 345 344 344 343 344 344 343 341 339 338 337 337 336 336 335 335 334 333 332 332 332 331 330 329 329 322 317 323 328 330 338 339 340 339 338 338
330 330 333 339 340 342 342 342 341 341 341 340 341 341 339 338 337 336 336 336 335 334 333 332 331 330 330 330 330 328 327 328 320 315 319 326 332 338 335 339 338 337 337
327 327 328 330 334 336 335 336 336 336 337 337 338 337 337 336 336 336 336 335 334 333 331 330 329 329 329 328 328 327 326 327 314 313 321 324 332 336 334 334 335 336 337
324 326 325 326 327 326 328 333 333 333 333 334 334 334 333 333 334 335 334 335 333 332 331 330 330 328 327 327 327 327 326 323 315 313 315 320 331 335 336 335 334 333 333
322 322 323 325 325 325 325 329 332 333 332 332 332 332 329 328 328 329 331 333 334 332 331 331 329 328 327 326 325 325 325 316 314 313 313 324 330 333 334 334 333 332 333
318 320 322 323 323 324 329 327 326 328 327 327 327 327 326 325 325 330 330 331 332 330 330 330 330 329 327 319 317 320 316 316 315 313 312 323 328 331 332 331 330 330 331
318 320 322 323 322 323 324 325 324 325 325 325 324 324 324 326 325 326 323 322 321 325 322 323 322 321 320 318 317 316 316 315 313 312 313 321 327 330 329 329 328 328 329
318 321 322 323 323 322 323 324 323 324 325 324 325 325 323 322 321 322 322 320 319 319 318 318 318 318 316 316 316 315 315 314 314 313 312 319 325 327 327 327 327 327 329
319 322 323 324 325 324 322 322 322 322 324 325 326 326 321 320 317 318 318 316 314 313 312 311 311 311 311 312 312 312 312 312 312 312 311 317 321 325 326 326 327 327 326
321 323 324 323 323 318 319 319 320 322 324 324 324 324 321 319 316 315 314 314 313 313 312 311 310 310 310 311 311 312 312 312 312 311 310 309 316 320 323 324 325 326 326
323 325 322 319 317 318 317 317 318 320 320 320 322 321 320 319 316 314 313 312 312 311 310 310 309 308 307 308 307 309 310 310 310 310 310 309 309 314 318 321 322 326 326
321 321 321 324 319 322 321 319 317 316 314 314 317 316 317 317 315 313 311 310 310 308 307 306 306 304 304 304 303 304 305 307 308 308 309 308 306 307 310 315 319 321 325
321 322 321 324 325 325 323 320 317 312 312 311 312 313 313 313 312 309 308 306 306 306 305 304 303 302 302 300 303 302 301 304 305 308 307 307 307 306 306 310 313 315 318
315 317 319 321 324 323 319 316 312 310 310 310 309 310 310 309 310 308 305 306 307 305 302 301 301 300 300 300 303 302 301 301 302 302 301 304 305 305 305 306 306 307 311
314 316 317 317 317 314 312 311 308 306 308 308 307 308 307 307 306 305 304 302 302 301 300 300 300 298 298 299 297 298 299 299 298 296 298 300 302 301 299 300 300 302 305
312 312 310 310 309 309 308 307 308 306 304 304 305 304 303 302 302 301 300 301 303 302 301 299 298 298 298 297 295 294 291 294 295 296 295 297 295 297 297 297 298 298 300
307 305 306 306 306 307 307 306 305 305 304 302 301 300 301 301 301 300 300 300 299 299 298 296 296 295 294 295 295 293 288 286 289 292 292 293 292 293 294 294 295 297 300
303 304 305 306 306 307 306 304 303 301 300 300 300 300 300 300 300 301 300 299 298 297 296 295 298 294 294 292 293 295 292 291 285 285 289 290 291 292 291 292 292 295 299
304 303 304 305 305 305 304 304 302 301 302 302 302 301 300 299 301 301 299 297 296 296 295 294 293 293 293 291 290 289 288 288 287 286 284 286 289 291 290 291 290 293 296
304 303 301 303 302 303 303 303 302 301 301 300 300 299 298 297 297 297 297 295 295 294 293 293 292 291 291 291 290 289 290 288 288 288 286 284 285 287 288 289 289 292 293

GFSSE_sfc_thetae_042.txt.gz
Theta_e
338 341 346 350 350 349 348 347 348 348 349 350 350 350 349 349 349 348 347 348 348 347 347 346 345 344 343 341 340 339 338 337 337 338 338 340 342 343 345 346 345 342 346
340 341 345 348 349 348 348 348 349 349 349 349 349 348 347 347 347 346 347 348 347 344 344 344 343 342 341 339 338 338 338 337 336 337 336 335 338 340 339 342 343 343 345
338 341 344 346 348 349 349 350 350 349 348 346 346 346 344 343 343 343 344 345 345 343 342 342 341 340 338 337 336 336 336 335 335 335 333 330 331 338 339 342 342 343 342
340 340 343 346 348 349 349 349 349 348 347 346 345 344 343 343 343 343 343 344 345 340 339 340 339 337 335 335 335 334 334 334 333 331 324 328 333 340 338 342 342 342 341
340 340 342 344 346 347 348 348 348 348 347 346 345 343 343 343 342 341 341 343 342 340 339 337 336 334 334 334 333 333 332 332 329 323 324 326 332 337 338 338 339 340 338
338 337 339 341 344 346 347 347 347 346 345 345 344 344 343 341 339 338 338 339 338 337 336 335 335 333 332 332 331 330 329 329 324 317 323 327 332 338 340 341 339 338 338
334 336 338 339 343 345 346 345 345 344 343 344 344 343 341 339 338 337 337 336 336 335 334 333 332 331 330 331 330 328 328 328 318 315 319 327 330 339 339 341 339 339 338
332 333 336 341 342 343 343 343 342 342 342 341 341 341 339 338 337 336 335 335 335 333 332 331 330 329 330 329 329 328 327 326 316 315 321 325 332 338 337 338 339 338 338
329 328 329 332 337 339 338 338 338 338 338 338 338 337 337 336 336 336 336 335 333 332 331 330 330 329 329 328 328 327 326 325 315 314 317 321 330 334 336 336 335 336 336
322 324 323 325 327 326 329 334 334 334 334 334 335 334 333 333 334 333 333 334 332 332 331 331 330 329 329 328 327 326 326 321 314 314 314 318 331 333 334 335 334 334 333
321 321 322 323 323 323 324 329 332 333 333 332 332 332 329 327 327 327 331 332 332 331 331 331 331 329 328 325 325 325 322 315 315 314 312 320 328 330 332 334 335 332 331
318 320 321 322 322 322 327 326 324 327 326 326 327 326 325 324 324 328 329 331 331 331 330 329 329 328 325 320 318 320 316 316 315 314 313 321 325 328 330 331 334 332 332
316 319 321 322 321 322 323 323 322 323 323 323 324 324 323 324 323 324 323 321 320 324 320 321 320 319 319 317 317 315 315 315 314 314 315 321 323 327 328 328 332 331 331
315 318 321 321 321 320 321 323 322 323 323 322 323 323 322 321 321 320 321 320 318 318 315 314 313 313 311 312 312 312 313 313 313 314 314 320 321 324 328 328 328 331 331
315 317 320 321 321 321 320 321 321 321 323 322 323 324 323 320 319 318 318 316 313 311 311 310 310 311 310 311 311 311 311 312 312 312 311 316 318 321 324 326 328 327 330
316 319 320 321 322 320 319 319 319 320 321 323 324 324 322 319 316 315 313 312 311 311 310 309 309 307 306 307 306 308 309 309 309 310 310 310 315 316 318 321 324 325 326
317 320 321 319 317 318 316 315 316 319 320 320 322 321 319 318 315 313 311 309 309 308 307 306 305 305 304 305 303 305 306 305 307 307 309 309 308 311 314 316 318 320 322
319 319 320 323 320 320 319 317 316 315 314 315 315 315 315 316 313 310 308 306 306 306 305 304 304 303 303 301 301 302 302 303 304 306 306 306 306 307 308 312 312 314 316
319 320 321 323 322 320 321 316 315 313 313 313 312 310 310 311 310 307 305 305 305 306 305 305 303 300 299 299 302 301 300 301 302 305 302 304 305 304 302 304 305 306 308
318 320 322 323 322 318 317 317 316 313 307 306 307 307 308 308 308 306 305 305 304 302 300 301 300 300 298 299 301 301 300 300 301 298 299 302 301 300 299 299 299 300 304
315 318 321 321 320 318 315 311 307 305 305 303 304 305 304 304 303 301 300 300 300 300 299 300 299 297 298 298 296 296 297 298 297 295 297 298 297 298 297 297 298 297 299
312 315 314 312 311 310 308 307 304 302 301 301 301 301 301 300 300 300 299 299 299 299 298 297 296 295 296 296 293 292 289 292 293 295 294 295 292 294 294 295 296 296 299
306 304 306 307 307 307 306 305 304 303 302 300 299 299 299 300 300 299 299 299 298 297 295 294 294 293 292 294 294 292 287 285 288 291 292 292 292 292 292 293 294 295 298
302 303 304 305 305 305 304 303 301 300 299 299 299 299 298 299 299 300 299 298 296 296 294 293 295 293 292 290 292 294 292 291 286 286 289 290 290 291 291 292 292 294 297
303 302 304 304 304 304 303 303 301 300 300 300 300 299 298 298 299 298 297 295 294 295 294 293 293 292 292 290 290 290 289 288 287 288 285 287 289 290 290 291 291 292 295
303 301 302 304 303 303 302 302 301 300 299 298 298 297 296 295 296 296 296 295 294 294 292 292 291 290 290 290 290 292 290 288 287 288 286 287 287 288 290 290 290 291 292

GFSSE_sfc_thetae_045.txt.gz
Theta_e
341 344 348 350 350 349 348 348 348 349 350 351 351 350 349 349 349 348 349 348 348 347 346 345 344 342 342 341 340 339 339 338 337 338 339 339 342 342 343 345 344 341 344
343 345 346 349 349 348 348 349 348 349 350 350 349 349 348 348 348 348 349 348 347 345 345 344 342 341 340 339 338 338 337 336 336 336 336 338 338 339 341 342 344 341 344
341 346 348 347 348 348 349 350 349 349 349 347 347 347 346 345 345 345 345 347 345 342 343 342 340 338 337 336 335 335 335 335 334 333 333 339 339 341 340 342 342 343 343
343 346 348 346 348 349 349 349 348 348 348 347 345 344 343 343 343 343 343 345 343 340 340 338 336 336 335 335 334 333 332 332 329 331 335 338 338 340 339 340 342 340 340
344 346 348 345 346 348 348 348 348 347 347 346 345 343 344 343 342 342 343 344 341 339 337 336 335 334 334 332 331 329 329 329 325 331 335 337 340 340 340 339 339 340 340
343 346 344 343 345 347 348 348 347 346 345 344 344 344 343 341 339 339 340 341 337 336 335 334 333 332 331 331 330 329 329 328 327 330 333 337 339 340 340 340 339 339 339
341 345 346 340 344 347 347 346 345 344 344 344 344 344 341 339 337 337 337 337 336 334 333 332 331 330 330 331 329 328 329 326 326 329 333 336 338 339 339 338 339 339 338
339 342 343 342 343 344 344 343 342 342 342 342 342 341 339 338 337 336 336 335 334 333 332 331 330 329 330 329 328 328 328 326 325 325 326 330 334 336 337 336 338 337 335
340 340 342 343 343 340 339 339 338 339 339 339 339 338 337 336 336 336 336 334 333 332 331 331 330 330 329 328 327 327 326 324 325 323 322 325 331 333 334 336 336 336 334
335 336 337 339 340 341 341 336 336 336 335 335 335 334 333 333 334 334 333 333 332 332 332 331 331 330 330 328 327 326 323 324 326 325 323 322 328 329 331 333 335 335 334
328 330 331 332 333 334 335 335 334 334 334 333 333 332 330 334 334 333 331 331 332 332 332 332 331 330 328 326 325 325 324 325 326 325 325 323 326 329 329 331 335 335 333
323 325 328 329 329 330 329 334 333 333 333 333 334 334 334 335 336 334 333 330 331 329 328 328 327 326 328 327 325 325 325 325 325 325 324 323 326 328 329 331 333 334 334
322 324 326 328 329 329 330 330 330 331 332 332 333 333 334 335 336 337 336 334 335 328 330 327 327 326 324 324 324 324 324 324 324 324 323 321 323 326 328 329 331 333 333
320 323 326 328 328 328 329 329 330 330 331 331 332 332 334 334 334 335 334 334 332 327 325 324 324 323 323 321 320 319 320 320 319 320 321 319 320 323 326 327 328 329 331
318 322 326 327 328 328 329 330 330 330 332 332 333 333 334 333 333 332 331 328 325 325 324 323 321 319 318 317 316 315 315 315 314 315 317 317 317 319 322 324 325 326 327
319 322 326 327 329 329 328 328 329 331 331 333 333 333 332 330 329 327 325 323 321 320 319 317 317 316 315 314 313 313 313 312 312 313 314 315 314 315 318 320 321 323 323
321 325 326 326 327 325 324 323 323 322 322 323 325 326 326 328 326 323 321 318 317 316 317 316 314 314 312 310 309 311 311 311 311 312 313 314 315 311 310 311 312 314 316
323 326 326 326 324 324 322 321 316 317 318 320 321 322 322 322 320 318 315 312 314 313 312 310 310 307 308 308 308 309 309 309 309 311 311 312 311 309 308 306 307 308 309
325 325 326 327 326 323 320 318 316 315 316 317 317 315 316 315 315 313 310 312 311 310 310 309 308 307 306 306 305 306 308 306 308 309 307 308 306 306 305 304 304 304 306
325 326 325 326 324 319 317 316 315 315 312 312 313 312 314 313 313 312 310 310 310 309 308 307 306 305 305 305 301 303 304 305 309 308 305 305 304 304 303 303 303 303 303
326 326 325 321 319 318 317 316 312 312 312 311 312 312 311 310 310 310 309 309 308 307 306 306 304 303 302 304 301 300 301 307 307 305 304 303 302 301 301 301 301 302 303
324 326 323 323 319 318 317 316 314 312 311 311 309 309 308 309 309 308 309 307 307 306 305 304 303 301 301 303 298 298 295 298 303 303 303 301 300 300 299 299 300 301 302
319 320 319 318 319 318 317 314 312 311 310 309 309 308 307 308 308 308 307 307 306 306 303 303 302 300 298 301 301 297 293 291 295 299 299 299 299 298 299 299 299 299 301
312 313 314 314 313 314 314 313 311 311 310 309 309 308 307 307 307 307 306 306 305 305 302 301 302 301 300 297 299 301 299 296 290 289 295 296 297 297 298 298 298 299 299
310 311 311 312 311 311 312 312 311 309 309 309 310 308 307 307 306 305 305 304 304 303 303 301 300 299 299 297 296 295 294 295 294 290 288 291 294 296 297 297 298 298 298
310 310 310 310 309 309 309 310 310 308 306 306 306 306 305 305 305 305 304 304 303 302 301 300 300 299 298 298 297 296 294 292 291 290 288 290 290 293 295 296 297 297 298

GFSSE_sfc_thetae_051.txt.gz
Theta_e
342 348 349 350 350 350 349 350 350 350 351 351 351 351 350 349 349 349 349 349 347 345 345 344 342 341 340 338 338 337 337 336 337 338 338 341 342 341 341 344 343 338 344
345 347 347 349 349 349 349 350 350 350 350 349 348 349 350 349 348 347 347 347 345 343 343 340 339 337 337 336 335 334 333 333 334 336 336 341 344 341 340 344 343 341 344
345 346 345 347 349 349 350 350 351 350 348 348 347 347 347 346 346 346 344 343 343 342 339 337 337 337 335 331 330 330 330 330 332 336 341 338 339 342 341 342 343 342 341
345 345 344 346 348 349 349 350 350 349 348 347 345 345 344 344 344 345 342 343 340 338 337 336 335 332 331 331 331 331 331 331 333 336 335 335 337 342 340 340 342 338 338
344 346 346 346 347 349 349 349 348 347 347 346 346 344 344 344 344 343 341 341 338 336 335 333 331 330 331 331 331 331 331 332 334 331 332 333 336 339 340 339 339 338 338
343 347 344 344 346 348 348 348 347 346 346 346 346 344 342 340 341 341 339 339 335 333 332 331 330 330 331 331 331 331 331 332 330 329 331 338 337 338 338 337 336 336 337
343 345 346 343 346 348 348 346 346 345 345 346 344 342 339 338 338 338 337 335 334 332 331 330 330 330 331 331 330 330 330 330 327 325 327 330 331 335 336 337 337 336 334
342 345 345 345 344 344 344 345 343 343 344 343 342 340 338 337 337 335 335 334 333 332 331 330 330 331 330 330 329 329 328 329 326 323 323 326 332 332 331 332 336 336 334
343 343 344 344 344 342 341 340 340 341 341 340 340 339 337 337 337 336 335 333 332 331 331 330 330 331 330 329 328 328 327 329 328 324 323 324 330 331 331 331 331 332 333
341 341 342 343 342 343 343 339 338 338 337 337 336 335 334 334 334 335 335 334 332 331 331 331 331 330 328 326 326 326 328 328 326 325 326 325 329 330 331 331 331 331 332
339 339 338 336 337 338 338 339 336 336 335 334 333 334 331 334 335 333 332 333 331 330 330 330 329 329 329 329 327 326 328 325 325 325 326 327 327 329 330 331 331 331 332
335 333 334 336 335 333 329 334 334 331 330 333 334 335 336 337 338 335 334 332 332 330 331 330 329 330 329 328 327 329 325 326 325 324 324 326 324 326 328 329 330 330 331
329 328 331 332 333 331 331 331 330 330 334 337 339 338 339 337 338 337 336 336 337 332 331 329 329 328 329 328 326 326 325 325 323 323 322 324 322 323 325 326 327 329 329
324 326 328 330 332 332 329 328 329 330 334 335 337 340 340 338 340 337 335 335 337 332 330 329 328 330 329 327 325 324 324 322 322 321 322 320 319 319 321 323 325 326 326
323 327 330 331 332 334 334 335 336 335 337 339 338 339 342 341 337 338 338 333 331 330 329 328 328 326 325 325 323 322 321 322 322 320 320 319 318 318 318 319 321 321 321
325 329 332 332 333 335 336 337 337 335 335 335 337 338 338 337 336 335 333 331 330 327 326 325 323 322 321 323 320 320 319 320 320 320 318 319 317 316 315 313 314 316 317
326 331 332 333 336 335 333 332 331 330 329 328 330 333 334 334 333 331 329 326 324 323 323 321 320 320 318 318 318 318 317 317 316 316 316 315 315 313 311 310 309 310 311
327 330 334 333 335 333 330 328 327 327 327 325 325 326 328 328 327 326 322 320 320 318 317 318 317 316 315 314 313 313 312 311 311 313 311 311 313 312 310 308 306 307 307
327 331 333 334 330 330 326 324 323 322 323 323 323 321 321 321 321 320 319 319 319 317 317 315 314 312 310 309 308 308 309 307 310 308 309 311 312 311 310 312 307 309 304
329 332 334 331 327 327 328 323 324 321 320 320 320 319 319 319 319 318 318 318 317 315 314 313 311 310 307 306 305 305 308 307 308 308 310 310 310 309 308 307 306 306 307
332 333 332 328 330 331 329 326 324 322 320 319 318 319 319 318 318 318 317 316 316 312 312 311 308 306 305 306 303 303 304 307 309 308 309 308 307 307 307 305 305 304 304
331 331 329 329 329 330 328 327 325 322 319 319 319 319 318 318 317 316 316 314 313 310 309 308 307 304 303 304 300 299 296 299 302 305 305 306 307 305 304 304 304 303 303
326 329 330 330 330 328 326 323 322 320 319 317 317 317 317 317 316 315 314 312 310 308 306 306 306 303 300 301 303 298 293 292 296 300 301 302 304 302 302 301 302 302 302
328 328 326 326 326 324 323 320 319 315 313 317 317 317 317 316 314 312 311 309 309 308 307 306 305 304 302 298 300 300 301 299 293 291 298 298 300 300 301 301 301 301 301
324 324 325 324 322 322 320 320 318 317 318 318 316 314 314 313 312 310 309 308 308 307 307 306 305 304 302 300 298 298 298 298 297 293 290 293 297 297 299 300 300 299 299
322 321 321 319 319 320 319 319 318 316 314 313 312 309 309 308 308 308 307 308 308 307 306 305 306 304 302 301 300 299 297 294 293 293 292 292 292 294 296 297 298 298 299

GFSSE_sfc_thetae_054.txt.gz
Theta_e
337 343 348 350 351 351 350 350 350 350 351 351 351 350 350 350 350 349 349 348 347 345 344 341 340 338 337 337 336 335 335 335 336 338 342 343 342 342 342 344 342 339 346
341 343 347 349 350 350 350 350 350 350 350 350 350 350 350 349 348 348 347 346 345 342 340 339 338 337 333 332 332 331 332 335 336 338 342 344 343 342 341 343 342 342 345
340 343 344 347 349 349 350 351 350 350 350 349 349 349 348 348 347 345 345 344 341 339 339 337 335 332 332 332 331 332 333 335 336 338 341 335 337 343 342 342 341 341 340
341 340 344 347 348 349 349 349 349 349 349 348 347 346 346 345 345 343 342 342 341 337 335 333 332 333 332 332 332 332 333 335 336 336 333 336 335 341 340 343 340 336 338
340 342 345 346 347 348 348 348 348 348 347 346 346 345 345 344 343 341 342 340 338 334 333 332 333 332 332 333 333 333 333 334 333 331 332 333 333 337 338 337 336 336 337
343 343 343 343 345 347 348 348 347 346 346 346 345 343 341 341 340 339 339 338 334 333 331 332 332 332 333 333 333 332 332 332 331 332 331 333 333 339 338 338 339 337 336
340 342 344 341 343 347 348 347 345 345 346 344 342 341 340 339 338 338 337 336 334 332 332 332 332 332 332 332 332 331 330 330 326 319 323 324 328 335 333 335 338 338 336
340 342 343 343 344 344 345 344 343 344 343 342 341 340 339 338 337 337 336 335 334 333 332 331 332 332 332 331 331 329 329 330 325 318 321 323 333 333 332 332 335 336 335
341 340 342 342 343 341 340 340 340 341 340 339 339 338 337 337 336 336 335 335 334 334 333 332 332 332 331 330 329 327 328 329 323 320 321 323 334 333 332 332 334 334 334
340 340 340 341 341 340 339 338 338 337 336 336 335 334 334 334 334 335 334 334 334 333 332 331 332 331 331 329 328 327 327 329 321 319 321 325 332 331 331 332 332 332 335
336 339 339 339 340 338 338 338 336 336 335 333 333 333 330 330 330 332 332 333 333 333 332 332 331 331 330 330 330 330 329 321 320 320 320 329 330 328 328 329 330 330 332
331 333 335 335 336 336 332 335 333 331 330 330 330 331 332 335 333 333 331 332 333 333 333 332 332 330 329 324 325 327 322 322 320 319 319 327 327 325 324 324 326 328 329
330 330 331 334 333 331 329 332 329 329 332 334 336 337 337 335 336 333 334 332 332 332 331 329 327 326 327 325 323 322 321 319 318 317 320 323 323 322 322 323 324 326 326
325 326 329 331 332 331 330 330 329 330 335 335 336 336 335 334 334 332 331 332 331 329 327 327 326 327 324 324 323 321 319 319 317 317 319 321 322 320 320 321 321 321 321
323 325 328 330 332 331 332 335 334 336 335 335 336 337 336 334 331 331 332 331 329 327 324 322 321 321 319 319 319 319 317 316 317 316 316 319 320 318 318 318 318 318 318
323 326 328 330 334 335 334 335 332 330 328 328 331 332 334 333 332 331 330 328 324 323 322 319 320 317 316 317 316 317 317 316 315 314 312 313 318 318 316 315 315 314 314
326 328 328 330 334 333 330 330 327 326 325 324 327 329 329 329 329 326 322 320 319 319 316 315 315 315 313 313 310 310 310 309 307 308 308 309 310 315 313 311 310 310 310
328 329 329 331 332 330 328 326 325 324 323 324 323 325 325 324 323 322 319 316 316 315 314 313 312 309 308 307 305 305 306 305 305 305 306 305 307 309 310 309 308 309 309
329 331 331 331 328 327 324 324 322 323 324 322 322 320 320 319 320 317 317 316 316 314 314 311 308 307 304 303 302 301 303 303 304 305 304 306 307 307 306 312 312 311 306
329 332 331 328 325 324 325 324 324 324 322 321 319 319 319 318 318 317 316 314 314 312 310 309 306 305 303 302 302 301 301 302 302 302 303 307 305 306 305 303 302 302 309
329 332 329 325 325 326 324 323 321 320 320 318 318 318 318 317 317 316 315 314 312 309 307 306 303 301 300 301 298 297 297 299 298 299 299 299 301 304 305 304 302 300 299
331 329 328 327 326 327 328 327 324 321 318 317 317 317 317 316 315 314 313 311 310 307 305 304 302 300 299 300 295 295 291 293 296 298 298 298 298 298 299 299 299 299 298
328 329 328 328 328 329 327 323 323 321 318 315 315 315 315 315 314 312 311 309 307 305 303 302 301 300 296 297 298 293 290 288 292 295 296 296 296 295 298 298 297 297 298
327 328 329 329 328 327 323 320 318 314 312 314 315 315 315 315 312 311 308 306 305 305 303 302 302 299 298 295 296 299 295 293 289 288 292 295 295 295 294 294 296 297 297
328 328 327 325 323 322 321 320 318 316 316 316 315 313 312 312 312 310 307 306 304 305 304 303 303 301 298 296 295 294 293 293 292 289 286 289 292 293 293 293 293 292 294
326 325 325 321 319 320 319 319 318 316 312 310 309 307 308 307 306 306 306 305 305 304 303 303 300 300 298 297 296 295 293 291 290 289 287 287 287 290 291 291 291 291 293

GFSSE_sfc_thetae_060.txt.gz
Theta_e
341 348 349 351 351 350 349 349 349 349 349 350 349 349 348 348 347 346 345 344 342 339 337 334 333 332 332 334 335 336 336 338 342 343 343 341 341 340 341 340 342 338 343
344 348 348 349 350 349 349 349 349 349 349 349 348 348 347 347 346 344 343 342 339 335 334 334 333 333 333 334 334 334 335 337 340 341 342 342 340 339 337 340 340 338 340
344 347 348 347 349 349 349 349 349 349 349 347 348 347 346 344 341 340 341 340 337 334 334 334 334 333 333 332 333 334 336 334 337 340 340 333 335 338 337 337 337 336 335
344 346 347 346 347 349 348 348 347 348 348 347 347 345 343 341 339 338 337 337 336 335 334 334 333 332 331 332 334 335 338 337 336 337 332 332 334 338 337 335 334 334 334
344 345 346 345 346 347 348 347 346 347 346 346 346 344 340 339 338 336 337 336 336 334 334 333 332 331 331 333 333 334 336 338 337 334 329 330 330 335 336 336 334 334 334
341 344 343 343 345 347 347 347 346 346 345 344 343 342 340 338 336 335 336 336 335 334 333 332 331 331 332 332 333 332 333 331 328 322 324 329 326 334 333 333 335 334 335
341 341 341 341 344 344 346 346 344 343 342 342 342 341 339 336 335 335 336 336 336 333 332 332 331 332 331 331 332 330 330 328 319 321 322 324 327 334 333 333 333 333 333
335 336 338 339 339 341 343 343 341 340 340 340 340 339 338 337 336 336 336 335 335 334 333 332 332 331 331 331 331 330 329 326 319 320 323 325 334 333 333 332 332 334 333
335 335 336 337 337 339 339 338 337 337 337 338 337 336 336 335 335 335 335 335 334 334 333 332 330 330 331 331 331 329 327 325 314 316 324 324 334 332 330 330 330 331 331
335 335 334 335 338 337 337 335 335 335 334 334 334 333 332 332 333 334 333 334 334 333 332 330 330 329 329 329 329 328 325 322 316 318 321 323 332 328 327 327 328 329 329
332 333 334 335 335 335 334 334 334 334 333 332 332 332 328 327 328 329 330 332 333 332 331 330 330 329 328 327 329 327 323 314 316 316 318 327 329 325 325 326 327 326 325
328 330 334 334 334 334 334 330 329 330 328 327 327 326 325 325 326 329 329 330 332 331 331 331 330 328 325 319 318 320 315 314 313 315 316 324 325 323 324 324 324 324 322
326 331 333 333 333 330 329 327 325 324 323 324 324 324 325 328 327 327 326 328 327 331 325 322 319 318 316 315 315 313 313 313 311 312 316 322 322 322 322 323 322 321 320
325 328 330 331 328 325 327 324 322 322 324 327 329 329 327 326 324 324 325 323 320 319 317 316 314 314 312 312 311 309 309 309 307 307 308 319 321 320 320 321 320 319 317
325 326 325 328 321 323 324 324 326 328 328 328 329 329 327 325 324 321 319 318 316 314 312 310 310 309 308 307 306 305 306 304 302 303 303 313 319 319 319 319 316 315 314
323 321 322 322 323 327 324 324 323 324 324 326 327 327 326 324 321 318 316 315 313 311 310 307 305 304 303 303 302 302 302 301 300 301 301 302 318 320 317 315 313 313 312
321 321 321 323 327 323 322 321 319 322 324 323 323 323 321 319 317 314 312 310 309 309 306 305 303 302 301 301 299 299 300 299 300 300 300 300 308 316 316 312 310 311 309
321 321 323 330 324 322 320 319 318 318 318 319 319 318 318 316 313 310 309 308 309 308 305 304 302 299 298 298 296 296 296 297 297 298 298 299 301 307 311 313 310 309 308
321 321 324 323 321 319 319 318 317 317 316 316 315 313 314 313 312 309 308 308 308 306 304 304 300 298 296 296 297 295 294 295 295 298 297 296 297 299 301 307 309 309 307
321 323 323 322 320 318 318 317 316 315 314 313 312 311 312 313 313 310 308 306 305 303 302 300 297 297 296 295 298 295 294 294 293 294 294 297 296 296 297 297 299 302 307
321 323 322 320 319 318 316 315 313 312 312 311 311 312 311 311 310 308 306 304 302 301 300 299 297 295 294 294 292 292 292 292 293 292 294 293 294 295 296 297 297 295 297
322 321 320 320 319 319 318 317 316 313 312 311 310 310 310 309 309 306 304 302 301 299 298 297 296 294 294 294 291 289 287 289 292 294 292 294 291 293 294 295 294 295 293
320 319 319 320 320 319 318 319 313 310 309 307 307 306 308 309 308 306 304 302 300 299 298 296 296 295 292 293 293 291 287 285 287 290 291 291 291 291 291 291 293 292 292
321 319 320 321 320 319 320 318 312 308 306 306 306 307 307 308 306 305 303 301 300 299 298 297 298 295 294 292 292 295 291 290 286 284 289 291 291 291 290 289 290 290 291
321 321 320 320 320 321 321 317 313 307 306 307 308 307 307 306 306 304 302 300 299 299 297 296 296 295 294 292 291 291 289 289 288 285 285 286 288 289 290 289 287 287 289
321 319 319 319 320 320 317 312 309 307 306 305 304 303 304 303 303 301 300 298 297 296 296 295 294 294 294 293 293 291 290 289 288 286 287 286 284 287 288 288 287 287 288

GFSSE_sfc_thetae_066.txt.gz
Theta_e
342 346 347 348 348 347 346 346 346 346 347 348 348 347 346 345 343 343 341 339 338 335 335 335 335 336 338 341 342 342 343 343 342 343 339 338 337 337 337 336 335 332 337
343 345 346 347 347 347 347 347 347 347 348 347 347 345 344 343 341 339 339 338 338 335 334 334 335 337 337 337 341 342 342 342 341 340 340 338 337 336 335 335 337 331 333
345 346 345 345 347 347 347 348 348 348 348 345 344 342 341 340 339 338 339 339 338 335 333 335 337 340 340 339 338 342 341 340 339 339 337 330 330 334 334 333 335 333 333
345 345 344 345 346 347 347 347 347 347 346 345 342 340 340 338 337 337 338 338 337 336 335 335 337 340 339 340 339 341 340 339 337 335 330 329 328 333 332 332 332 332 331
343 343 344 343 344 346 346 347 346 346 345 343 342 340 339 337 336 336 339 337 337 336 334 334 336 338 338 338 339 339 338 336 333 328 325 324 325 331 333 333 332 333 333
341 343 341 341 344 346 347 347 346 345 343 342 341 341 338 335 335 336 338 337 337 335 332 332 333 333 334 336 337 336 333 330 327 322 324 328 326 333 333 333 333 333 333
340 339 340 340 343 345 346 346 345 344 342 341 340 339 338 337 335 337 337 337 336 335 333 332 332 333 333 333 333 331 330 329 322 323 324 325 329 332 332 331 332 331 331
337 337 339 341 341 341 340 341 342 342 340 340 340 338 338 337 337 337 336 335 335 335 334 334 334 333 332 332 331 329 327 327 323 323 324 325 333 331 330 330 330 329 329
334 334 335 336 337 337 338 339 339 339 338 338 338 337 336 335 335 335 335 335 334 334 334 334 333 333 331 330 329 326 325 325 319 321 324 323 332 329 328 329 328 327 326
332 333 333 334 334 334 335 336 336 336 336 335 335 334 332 333 333 334 333 334 334 334 334 333 330 331 329 327 326 326 324 321 316 318 320 322 330 326 327 327 326 325 323
331 332 333 333 331 333 333 334 334 335 334 333 332 331 327 326 325 326 331 333 334 333 332 329 327 324 323 323 323 322 317 313 313 314 315 325 327 326 326 325 324 323 322
323 325 327 329 329 332 332 329 328 330 327 327 325 324 323 323 324 326 329 332 332 329 327 324 322 319 313 309 309 310 306 306 305 307 313 323 323 322 324 324 322 321 320
322 324 326 328 329 329 328 325 324 323 323 324 322 323 324 325 324 325 324 323 318 319 313 312 309 308 306 306 304 303 302 302 301 302 310 320 321 319 322 322 320 319 317
320 322 322 323 327 327 326 323 322 321 322 321 322 324 325 324 322 319 318 316 313 311 309 307 306 304 304 303 302 301 300 300 299 300 302 313 318 319 320 321 318 316 315
320 320 319 321 326 325 322 320 320 321 322 324 324 326 324 321 316 316 313 311 309 307 305 303 302 302 301 300 300 299 299 298 298 298 299 309 313 319 315 317 316 315 314
319 321 324 326 324 323 320 320 321 324 325 325 325 324 323 319 315 313 311 309 307 305 303 301 300 298 297 298 297 298 297 297 297 297 298 302 316 317 317 315 313 312 312
321 324 323 323 321 322 320 322 322 324 324 324 323 323 320 317 314 310 308 306 304 305 303 301 299 298 297 297 295 296 296 296 296 296 296 301 305 309 312 313 310 309 308
320 321 321 325 323 321 320 321 321 322 320 320 319 319 318 314 310 309 309 307 307 305 303 301 298 296 295 295 294 293 294 295 296 296 296 296 298 298 303 311 310 309 306
322 320 319 322 319 318 317 317 317 317 318 317 317 316 314 310 309 311 308 305 305 304 303 302 299 296 294 294 295 294 293 293 295 296 295 295 296 296 296 303 307 308 307
319 318 321 319 316 315 314 314 313 313 313 313 312 310 309 308 308 307 306 304 304 302 298 297 296 295 295 294 296 294 292 292 293 293 294 295 295 295 295 296 295 296 303
316 319 318 316 315 316 314 311 310 310 310 310 311 311 311 309 307 306 303 301 301 299 297 296 295 294 294 293 292 292 291 292 292 292 293 293 294 295 295 295 294 294 293
315 318 318 317 316 316 316 312 312 310 310 308 310 310 309 309 307 304 302 300 299 297 297 296 295 294 293 293 291 289 288 290 291 292 292 293 292 293 294 294 293 293 292
315 317 319 317 317 316 315 314 312 312 308 307 306 306 307 307 306 303 301 299 298 297 296 295 294 294 292 292 292 291 287 285 287 290 291 291 292 292 292 292 292 292 291
316 317 319 318 317 316 316 314 313 311 307 307 306 305 305 306 304 303 301 298 298 297 297 296 298 294 293 292 292 293 291 289 287 285 289 290 291 291 291 291 291 291 290
315 316 317 317 317 317 317 316 315 313 307 305 304 304 303 302 302 301 299 298 300 297 297 296 294 293 293 291 290 290 289 288 287 286 283 287 289 291 292 290 290 290 289
315 314 315 316 318 317 317 317 315 311 305 303 303 302 301 300 299 299 301 300 296 298 297 293 292 291 291 291 291 290 289 288 287 286 283 284 285 288 290 290 289 288 287

GFSSE_sfc_thetae_069.txt.gz
Theta_e
342 345 347 349 348 347 347 347 347 347 348 348 348 347 346 345 343 341 340 340 340 337 337 339 341 344 344 344 342 343 344 343 341 341 339 337 337 337 336 336 335 331 335
344 344 345 347 347 347 347 347 347 348 348 348 347 346 345 343 342 340 340 339 339 337 337 338 338 342 344 342 342 343 342 341 340 340 340 337 335 335 335 335 336 333 334
343 344 346 346 347 347 347 348 348 349 348 346 344 344 343 341 341 340 340 339 339 337 339 341 342 340 342 341 343 342 341 340 339 338 336 329 330 333 333 333 334 332 332
344 344 345 345 346 347 347 347 348 347 345 345 343 343 341 340 340 341 340 338 339 339 339 342 343 342 341 342 342 340 339 337 335 335 330 328 329 334 334 334 334 334 333
344 343 344 344 344 346 346 346 346 346 345 343 342 341 340 340 340 339 338 338 339 337 340 342 341 341 341 340 340 339 336 334 333 330 329 330 330 333 334 333 333 333 333
342 344 343 342 344 346 346 346 345 344 342 341 341 340 339 339 338 339 338 337 337 337 337 339 338 338 339 338 337 335 333 331 331 330 330 332 331 332 333 332 331 331 332
342 344 345 340 343 346 347 346 344 342 341 340 339 338 339 339 339 338 337 336 336 336 334 334 335 336 336 335 333 332 331 331 329 329 329 330 331 332 332 331 330 329 329
341 344 344 341 342 343 343 343 341 340 340 339 338 338 339 339 338 337 336 336 336 335 335 335 334 334 333 332 331 330 329 329 328 328 328 328 332 331 331 330 328 327 326
340 339 337 340 339 338 339 339 338 338 338 337 337 337 336 336 335 335 335 335 335 335 335 334 333 332 332 331 329 327 327 327 327 327 326 327 331 329 329 328 326 325 324
336 335 334 334 334 335 334 336 336 336 335 334 334 333 333 333 333 334 334 335 335 334 334 332 330 329 328 328 325 324 323 324 325 325 324 324 331 327 328 326 325 324 323
332 332 331 329 328 329 331 334 336 335 333 333 332 331 329 330 330 331 332 334 333 332 330 327 324 322 323 321 319 317 318 319 322 322 321 326 327 327 326 325 323 322 321
326 328 329 327 329 328 333 333 334 333 331 331 330 330 328 331 331 331 332 332 329 327 324 322 319 318 317 314 313 314 312 313 313 314 316 324 323 323 325 323 322 320 320
324 324 325 326 329 330 331 330 329 329 329 329 329 329 331 331 332 333 333 327 322 320 315 316 315 313 313 312 311 311 310 310 310 310 312 317 320 321 323 323 320 319 318
322 321 323 326 328 330 329 327 326 326 327 327 329 332 332 331 332 329 325 321 319 317 315 315 313 312 311 310 309 308 308 308 309 309 309 313 317 321 322 321 318 317 316
319 321 322 324 327 329 327 325 325 326 327 329 331 334 334 330 324 322 320 319 317 315 313 312 311 309 309 308 308 307 306 307 308 309 311 317 319 319 316 319 317 315 314
318 319 320 322 327 328 325 325 325 328 328 329 330 332 331 325 323 321 318 316 314 313 312 311 309 307 306 307 306 306 305 305 306 309 313 315 314 315 316 316 314 313 312
319 319 319 323 329 328 325 325 327 328 330 330 331 331 327 324 322 320 317 314 313 312 311 309 308 308 306 305 305 305 305 305 305 306 308 312 312 311 313 313 313 310 309
322 320 322 326 329 328 326 326 328 330 330 330 330 329 326 324 321 318 315 314 314 312 309 309 308 306 305 305 305 304 305 305 305 305 305 305 306 306 308 310 311 311 309
323 324 326 328 327 327 326 327 329 331 329 328 328 326 321 320 319 318 315 315 314 311 311 308 307 307 305 305 304 305 305 304 305 303 303 304 305 304 305 302 304 305 307
324 326 326 327 326 325 325 326 326 327 326 326 325 323 321 317 317 316 315 314 313 310 308 307 307 306 306 306 303 303 304 303 305 305 304 304 304 305 304 304 303 303 301
325 324 326 325 324 323 322 323 322 323 322 322 321 319 316 315 315 317 314 312 311 309 308 308 307 306 305 306 304 304 302 302 302 303 304 304 303 304 304 303 302 302 302
323 324 325 325 324 324 325 324 323 322 320 321 319 316 314 314 315 314 312 310 310 308 308 308 307 305 306 305 303 301 298 299 300 302 302 302 303 303 302 302 302 301 301
324 323 324 325 324 324 324 321 318 318 316 315 315 312 314 314 314 313 311 310 309 309 307 307 306 305 303 304 303 300 295 293 296 302 301 301 302 302 302 301 301 300 300
323 324 325 324 323 323 322 321 319 317 313 315 313 312 313 315 313 311 310 310 309 308 307 307 306 305 304 302 303 302 302 300 293 291 300 300 301 300 301 301 300 300 300
323 322 324 324 323 322 322 322 320 317 317 316 312 313 313 313 312 310 310 309 308 307 306 306 305 304 305 301 299 300 299 299 299 295 291 294 298 300 300 300 299 299 298
322 322 323 323 322 322 322 321 320 317 315 313 312 311 311 311 310 309 308 307 306 305 302 302 302 301 301 301 300 299 297 295 295 295 293 293 293 296 298 299 298 297 297